Wetterdaten: aktuell Samstag, 27.11.2021 18:40
Datum Zeit Temp. Aussen Temp. o. S. Temp +5cm Feuchte Auss Luftdruck Regen Sonnenschein Regendauer Solar Windben Empfang
27.11.2021 18:40 4,5 C 3,9 C 1,1 C 82 % 993,0 hPa 0,0 l/m 0 min 0 min 0 W/m 6,4 km/h (2 Bft) 95,65 %
27.11.2021 18:38 4,5 C 3,9 C 1,1 C 82 % 992,9 hPa 0,0 l/m 0 min 0 min 0 W/m 6,4 km/h (2 Bft) 97,87 %
27.11.2021 18:36 4,5 C 3,9 C 1,7 C 82 % 992,9 hPa 0,0 l/m 0 min 0 min 0 W/m 6,4 km/h (2 Bft) 95,74 %
27.11.2021 18:34 4,5 C 3,9 C 1,7 C 81 % 993,0 hPa 0,0 l/m 0 min 0 min 0 W/m 3,2 km/h (1 Bft) 93,62 %
27.11.2021 18:32 4,5 C 3,9 C 1,7 C 81 % 992,9 hPa 0,0 l/m 0 min 0 min 0 W/m 6,4 km/h (2 Bft) 97,87 %
27.11.2021 18:30 4,5 C 3,9 C 1,7 C 81 % 992,9 hPa 0,0 l/m 0 min 0 min 0 W/m 3,2 km/h (1 Bft) 95,65 %
27.11.2021 18:28 4,5 C 3,9 C 1,7 C 81 % 992,9 hPa 0,0 l/m 0 min 0 min 0 W/m 6,4 km/h (2 Bft) 97,87 %
27.11.2021 18:26 4,5 C 3,9 C 1,7 C 81 % 992,8 hPa 0,0 l/m 0 min 0 min 0 W/m 6,4 km/h (2 Bft) 97,87 %
27.11.2021 18:24 4,5 C 3,9 C 1,7 C 81 % 992,7 hPa 0,0 l/m 0 min 0 min 0 W/m 3,2 km/h (1 Bft) 97,87 %
27.11.2021 18:22 4,5 C 3,9 C 1,7 C 81 % 992,8 hPa 0,0 l/m 0 min 0 min 0 W/m 3,2 km/h (1 Bft) 100,00 %
27.11.2021 18:20 4,5 C 3,9 C 1,7 C 80 % 992,8 hPa 0,0 l/m 0 min 0 min 0 W/m 6,4 km/h (2 Bft) 100,00 %
27.11.2021 18:18 4,5 C 3,9 C 1,7 C 80 % 992,8 hPa 0,0 l/m 0 min 0 min 0 W/m 6,4 km/h (2 Bft) 97,87 %
27.11.2021 18:16 4,5 C 3,9 C 1,7 C 80 % 992,7 hPa 0,0 l/m 0 min 0 min 0 W/m 3,2 km/h (1 Bft) 97,83 %
27.11.2021 18:14 4,5 C 3,9 C 1,7 C 80 % 992,7 hPa 0,0 l/m 0 min 0 min 0 W/m 6,4 km/h (2 Bft) 97,87 %
27.11.2021 18:12 4,5 C 3,9 C 1,7 C 80 % 992,7 hPa 0,0 l/m 0 min 0 min 0 W/m 9,7 km/h (2 Bft) 100,00 %
27.11.2021 18:10 4,5 C 3,9 C 1,7 C 80 % 992,7 hPa 0,0 l/m 0 min 0 min 0 W/m 6,4 km/h (2 Bft) 97,87 %
27.11.2021 18:08 4,5 C 3,9 C 1,7 C 80 % 992,7 hPa 0,0 l/m 0 min 0 min 0 W/m 12,9 km/h (3 Bft) 96,81 %
27.11.2021 18:04 4,5 C 3,9 C 1,7 C 80 % 992,7 hPa 0,0 l/m 0 min 0 min 0 W/m 6,4 km/h (2 Bft) 97,83 %
27.11.2021 18:02 4,5 C 3,9 C 1,7 C 80 % 992,7 hPa 0,0 l/m 0 min 0 min 0 W/m 12,9 km/h (3 Bft) 97,87 %
27.11.2021 18:00 4,6 C 3,9 C 1,7 C 80 % 992,7 hPa 0,0 l/m 0 min 0 min 0 W/m 9,7 km/h (2 Bft) 97,87 %
27.11.2021 17:58 4,5 C 3,9 C 1,7 C 80 % 992,7 hPa 0,0 l/m 0 min 0 min 0 W/m 9,7 km/h (2 Bft) 97,92 %
27.11.2021 17:56 4,6 C 3,9 C 1,7 C 80 % 992,6 hPa 0,0 l/m 0 min 0 min 0 W/m 9,7 km/h (2 Bft) 97,87 %
27.11.2021 17:54 4,6 C 3,9 C 1,7 C 80 % 992,6 hPa 0,0 l/m 0 min 0 min 0 W/m 3,2 km/h (1 Bft) 97,83 %
27.11.2021 17:52 4,5 C 3,9 C 1,7 C 80 % 992,7 hPa 0,0 l/m 0 min 0 min 0 W/m 16,1 km/h (3 Bft) 97,87 %
27.11.2021 17:50 4,5 C 3,9 C 1,7 C 80 % 992,6 hPa 0,0 l/m 0 min 0 min 0 W/m 22,5 km/h (4 Bft) 97,87 %
27.11.2021 17:48 4,5 C 3,9 C 1,7 C 80 % 992,6 hPa 0,0 l/m 0 min 0 min 0 W/m 12,9 km/h (3 Bft) 95,74 %
27.11.2021 17:46 4,5 C 3,9 C 1,7 C 81 % 992,6 hPa 0,0 l/m 0 min 0 min 0 W/m 16,1 km/h (3 Bft) 95,74 %
27.11.2021 17:44 4,5 C 3,9 C 1,7 C 81 % 992,6 hPa 0,0 l/m 0 min 0 min 0 W/m 16,1 km/h (3 Bft) 97,87 %
27.11.2021 17:42 4,5 C 3,9 C 1,7 C 82 % 992,6 hPa 0,0 l/m 0 min 0 min 0 W/m 12,9 km/h (3 Bft) 97,83 %
27.11.2021 17:40 4,5 C 3,9 C 1,7 C 82 % 992,6 hPa 0,0 l/m 0 min 0 min 0 W/m 22,5 km/h (4 Bft) 100,00 %
27.11.2021 17:38 4,5 C 3,9 C 1,7 C 82 % 992,5 hPa 0,0 l/m 0 min 0 min 0 W/m 12,9 km/h (3 Bft) 97,87 %
27.11.2021 17:36 4,6 C 3,9 C 1,7 C 82 % 992,5 hPa 0,0 l/m 0 min 0 min 0 W/m 16,1 km/h (3 Bft) 97,87 %
27.11.2021 17:34 4,6 C 3,9 C 1,7 C 82 % 992,4 hPa 0,0 l/m 0 min 0 min 0 W/m 16,1 km/h (3 Bft) 97,87 %
27.11.2021 17:32 4,6 C 3,9 C 1,7 C 82 % 992,4 hPa 0,0 l/m 0 min 0 min 0 W/m 19,3 km/h (3 Bft) 100,00 %
27.11.2021 17:30 4,5 C 3,9 C 1,7 C 82 % 992,4 hPa 0,0 l/m 0 min 0 min 0 W/m 16,1 km/h (3 Bft) 100,00 %
27.11.2021 17:28 4,6 C 3,9 C 1,7 C 83 % 992,3 hPa 0,0 l/m 0 min 0 min 0 W/m 19,3 km/h (3 Bft) 100,00 %
27.11.2021 17:26 4,6 C 3,9 C 1,7 C 83 % 992,3 hPa 0,0 l/m 0 min 0 min 0 W/m 16,1 km/h (3 Bft) 100,00 %
27.11.2021 17:24 4,6 C 3,9 C 1,7 C 83 % 992,3 hPa 0,0 l/m 0 min 0 min 0 W/m 22,5 km/h (4 Bft) 100,00 %
27.11.2021 17:22 4,6 C 3,9 C 1,7 C 83 % 992,3 hPa 0,0 l/m 0 min 0 min 0 W/m 9,7 km/h (2 Bft) 100,00 %
27.11.2021 17:20 4,6 C 3,9 C 1,7 C 83 % 992,2 hPa 0,0 l/m 0 min 0 min 0 W/m 6,4 km/h (2 Bft) 100,00 %
27.11.2021 17:18 4,6 C 3,9 C 1,7 C 83 % 992,2 hPa 0,0 l/m 0 min 0 min 0 W/m 3,2 km/h (1 Bft) 100,00 %
27.11.2021 17:16 4,6 C 3,9 C 1,7 C 82 % 992,2 hPa 0,0 l/m 0 min 0 min 0 W/m 6,4 km/h (2 Bft) 100,00 %
27.11.2021 17:14 4,6 C 3,9 C 1,7 C 82 % 992,2 hPa 0,0 l/m 0 min 0 min 0 W/m 3,2 km/h (1 Bft) 100,00 %
27.11.2021 17:12 4,6 C 3,9 C 1,7 C 82 % 992,2 hPa 0,0 l/m 0 min 0 min 0 W/m 6,4 km/h (2 Bft) 100,00 %
27.11.2021 17:10 4,6 C 3,9 C 1,7 C 82 % 992,1 hPa 0,0 l/m 0 min 0 min 0 W/m 6,4 km/h (2 Bft) 100,00 %
27.11.2021 17:08 4,6 C 3,9 C 1,7 C 82 % 992,1 hPa 0,0 l/m 0 min 0 min 0 W/m 9,7 km/h (2 Bft) 100,00 %
27.11.2021 17:06 4,6 C 3,9 C 1,7 C 82 % 992,1 hPa 0,0 l/m 0 min 0 min 0 W/m 6,4 km/h (2 Bft) 100,00 %
27.11.2021 17:04 4,6 C 3,9 C 1,7 C 83 % 992,1 hPa 0,0 l/m 0 min 0 min 0 W/m 16,1 km/h (3 Bft) 100,00 %
27.11.2021 17:02 4,6 C 3,9 C 1,7 C 83 % 992,1 hPa 0,0 l/m 0 min 0 min 0 W/m 12,9 km/h (3 Bft) 100,00 %
27.11.2021 17:00 4,6 C 3,9 C 1,7 C 83 % 992,1 hPa 0,0 l/m 0 min 0 min 0 W/m 12,9 km/h (3 Bft) 100,00 %
27.11.2021 16:58 4,6 C 3,9 C 1,7 C 83 % 992,0 hPa 0,0 l/m 0 min 0 min 0 W/m 9,7 km/h (2 Bft) 100,00 %
27.11.2021 16:56 4,6 C 3,9 C 1,7 C 83 % 992,0 hPa 0,0 l/m 0 min 0 min 0 W/m 3,2 km/h (1 Bft) 100,00 %
27.11.2021 16:54 4,6 C 3,9 C 1,7 C 83 % 992,1 hPa 0,0 l/m 0 min 0 min 0 W/m 6,4 km/h (2 Bft) 100,00 %
27.11.2021 16:52 4,6 C 3,9 C 1,7 C 83 % 992,0 hPa 0,0 l/m 0 min 0 min 0 W/m 6,4 km/h (2 Bft) 100,00 %
27.11.2021 16:50 4,6 C 3,9 C 1,7 C 83 % 992,0 hPa 0,0 l/m 0 min 0 min 0 W/m 9,7 km/h (2 Bft) 100,00 %
27.11.2021 16:48 4,6 C 3,9 C 1,7 C 83 % 992,0 hPa 0,0 l/m 0 min 0 min 0 W/m 6,4 km/h (2 Bft) 97,87 %
27.11.2021 16:46 4,6 C 3,9 C 1,7 C 83 % 992,0 hPa 0,0 l/m 0 min 0 min 0 W/m 6,4 km/h (2 Bft) 100,00 %
27.11.2021 16:44 4,6 C 3,9 C 1,7 C 83 % 992,0 hPa 0,0 l/m 0 min 0 min 0 W/m 6,4 km/h (2 Bft) 100,00 %
27.11.2021 16:42 4,6 C 3,9 C 1,7 C 83 % 991,9 hPa 0,0 l/m 0 min 0 min 0 W/m 3,2 km/h (1 Bft) 100,00 %
27.11.2021 16:40 4,6 C 3,9 C 1,7 C 83 % 991,9 hPa 0,0 l/m 0 min 0 min 0 W/m 6,4 km/h (2 Bft) 95,83 %
27.11.2021 16:38 4,6 C 3,9 C 1,7 C 83 % 991,9 hPa 0,0 l/m 0 min 0 min 0 W/m 6,4 km/h (2 Bft) 97,14 %
27.11.2021 16:36 4,6 C 3,9 C 1,7 C 83 % 991,9 hPa 0,0 l/m 0 min 0 min 0 W/m 3,2 km/h (1 Bft) 97,87 %
27.11.2021 16:34 4,6 C 3,9 C 1,7 C 83 % 991,8 hPa 0,0 l/m 0 min 0 min 0 W/m 3,2 km/h (1 Bft) 95,74 %
27.11.2021 16:32 4,6 C 3,9 C 1,7 C 83 % 991,8 hPa 0,0 l/m 0 min 0 min 0 W/m 6,4 km/h (2 Bft) 97,87 %
27.11.2021 16:30 4,6 C 3,9 C 1,7 C 83 % 991,8 hPa 0,0 l/m 0 min 0 min 0 W/m 6,4 km/h (2 Bft) 95,74 %
27.11.2021 16:28 4,6 C 3,9 C 1,7 C 83 % 991,8 hPa 0,0 l/m 0 min 0 min 0 W/m 6,4 km/h (2 Bft) 97,83 %
27.11.2021 16:26 4,6 C 3,9 C 1,7 C 83 % 991,7 hPa 0,0 l/m 0 min 0 min 0 W/m 6,4 km/h (2 Bft) 97,87 %
27.11.2021 16:24 4,6 C 3,9 C 1,7 C 83 % 991,7 hPa 0,0 l/m 0 min 0 min 0 W/m 6,4 km/h (2 Bft) 97,87 %
27.11.2021 16:22 4,7 C 3,9 C 1,7 C 82 % 991,7 hPa 0,0 l/m 0 min 0 min 0 W/m 6,4 km/h (2 Bft) 93,62 %
27.11.2021 16:20 4,7 C 3,9 C 1,7 C 82 % 991,7 hPa 0,0 l/m 0 min 0 min 0 W/m 3,2 km/h (1 Bft) 93,62 %
27.11.2021 16:18 4,7 C 3,9 C 1,7 C 82 % 991,7 hPa 0,0 l/m 0 min 0 min 5 W/m 3,2 km/h (1 Bft) 95,74 %
27.11.2021 16:16 4,7 C 3,9 C 1,7 C 82 % 991,7 hPa 0,0 l/m 0 min 0 min 5 W/m 3,2 km/h (1 Bft) 93,48 %
27.11.2021 16:14 4,8 C 3,9 C 1,7 C 82 % 991,7 hPa 0,0 l/m 0 min 0 min 6 W/m 3,2 km/h (1 Bft) 93,62 %
27.11.2021 16:12 4,8 C 3,9 C 1,7 C 82 % 991,7 hPa 0,0 l/m 0 min 0 min 7 W/m 0,0 km/h (0 Bft) 89,36 %
27.11.2021 16:10 4,8 C 3,9 C 1,7 C 82 % 991,7 hPa 0,0 l/m 0 min 0 min 9 W/m 3,2 km/h (1 Bft) 91,49 %
27.11.2021 16:08 4,8 C 3,9 C 1,7 C 82 % 991,7 hPa 0,0 l/m 0 min 0 min 12 W/m 3,2 km/h (1 Bft) 93,62 %
27.11.2021 16:06 4,8 C 4,4 C 1,7 C 82 % 991,7 hPa 0,0 l/m 0 min 0 min 13 W/m 12,9 km/h (3 Bft) 93,62 %
27.11.2021 16:04 4,8 C 3,9 C 1,7 C 82 % 991,7 hPa 0,0 l/m 0 min 0 min 18 W/m 6,4 km/h (2 Bft) 93,48 %
27.11.2021 16:02 4,8 C 3,9 C 1,7 C 81 % 991,7 hPa 0,0 l/m 0 min 0 min 21 W/m 3,2 km/h (1 Bft) 95,74 %
27.11.2021 16:00 4,8 C 3,9 C 1,7 C 81 % 991,6 hPa 0,0 l/m 0 min 0 min 20 W/m 3,2 km/h (1 Bft) 93,62 %
27.11.2021 15:58 4,8 C 3,9 C 1,7 C 81 % 991,6 hPa 0,0 l/m 0 min 0 min 20 W/m 3,2 km/h (1 Bft) 93,62 %
27.11.2021 15:56 4,8 C 3,9 C 1,7 C 81 % 991,6 hPa 0,0 l/m 0 min 0 min 19 W/m 3,2 km/h (1 Bft) 95,74 %
27.11.2021 15:54 4,9 C 3,9 C 1,7 C 81 % 991,6 hPa 0,0 l/m 0 min 0 min 18 W/m 6,4 km/h (2 Bft) 93,62 %
27.11.2021 15:52 4,9 C 4,4 C 1,7 C 81 % 991,6 hPa 0,0 l/m 0 min 0 min 18 W/m 12,9 km/h (3 Bft) 95,65 %
27.11.2021 15:50 4,9 C 4,4 C 1,7 C 81 % 991,6 hPa 0,0 l/m 0 min 0 min 22 W/m 6,4 km/h (2 Bft) 93,62 %
27.11.2021 15:48 4,9 C 4,4 C 1,7 C 81 % 991,5 hPa 0,0 l/m 0 min 0 min 23 W/m 6,4 km/h (2 Bft) 95,74 %
27.11.2021 15:46 4,9 C 4,4 C 1,7 C 81 % 991,5 hPa 0,0 l/m 0 min 0 min 24 W/m 6,4 km/h (2 Bft) 93,62 %
27.11.2021 15:44 4,9 C 4,4 C 1,7 C 81 % 991,5 hPa 0,0 l/m 0 min 0 min 26 W/m 6,4 km/h (2 Bft) 95,74 %
27.11.2021 15:42 4,9 C 4,4 C 1,7 C 81 % 991,5 hPa 0,0 l/m 0 min 0 min 36 W/m 9,7 km/h (2 Bft) 95,74 %
27.11.2021 15:40 5,0 C 4,4 C 1,7 C 81 % 991,4 hPa 0,0 l/m 2 min 0 min 53 W/m 6,4 km/h (2 Bft) 97,83 %
27.11.2021 15:38 5,0 C 4,4 C 1,7 C 81 % 991,4 hPa 0,0 l/m 2 min 0 min 52 W/m 6,4 km/h (2 Bft) 97,87 %
27.11.2021 15:36 5,0 C 4,4 C 1,7 C 81 % 991,4 hPa 0,0 l/m 0 min 0 min 43 W/m 6,4 km/h (2 Bft) 95,74 %
27.11.2021 15:34 5,0 C 4,4 C 1,7 C 81 % 991,3 hPa 0,0 l/m 0 min 0 min 39 W/m 9,7 km/h (2 Bft) 100,00 %
27.11.2021 15:32 5,0 C 4,4 C 1,7 C 81 % 991,3 hPa 0,0 l/m 0 min 0 min 39 W/m 6,4 km/h (2 Bft) 95,74 %
27.11.2021 15:30 5,0 C 4,4 C 2,2 C 81 % 991,3 hPa 0,0 l/m 0 min 0 min 40 W/m 12,9 km/h (3 Bft) 100,00 %
27.11.2021 15:28 5,0 C 4,4 C 2,2 C 81 % 991,3 hPa 0,0 l/m 0 min 0 min 38 W/m 9,7 km/h (2 Bft) 97,87 %
27.11.2021 15:26 5,0 C 4,4 C 2,2 C 80 % 991,3 hPa 0,0 l/m 0 min 0 min 36 W/m 9,7 km/h (2 Bft) 100,00 %
27.11.2021 15:24 5,0 C 4,4 C 2,2 C 80 % 991,3 hPa 0,0 l/m 0 min 0 min 35 W/m 9,7 km/h (2 Bft) 97,87 %
27.11.2021 15:22 5,0 C 4,4 C 2,2 C 80 % 991,2 hPa 0,0 l/m 0 min 0 min 36 W/m 12,9 km/h (3 Bft) 100,00 %
27.11.2021 15:20 5,0 C 4,4 C 2,2 C 80 % 991,2 hPa 0,0 l/m 0 min 0 min 37 W/m 16,1 km/h (3 Bft) 100,00 %
27.11.2021 15:18 5,1 C 4,4 C 2,2 C 79 % 991,2 hPa 0,0 l/m 0 min 0 min 36 W/m 12,9 km/h (3 Bft) 100,00 %
27.11.2021 15:16 5,1 C 4,4 C 2,2 C 79 % 991,2 hPa 0,0 l/m 0 min 0 min 40 W/m 22,5 km/h (4 Bft) 100,00 %
27.11.2021 15:14 5,1 C 4,4 C 2,2 C 80 % 991,2 hPa 0,0 l/m 0 min 0 min 44 W/m 16,1 km/h (3 Bft) 100,00 %
27.11.2021 15:12 5,1 C 5,0 C 2,2 C 80 % 991,2 hPa 0,0 l/m 0 min 0 min 44 W/m 19,3 km/h (3 Bft) 100,00 %
27.11.2021 15:10 5,2 C 5,0 C 2,2 C 79 % 991,2 hPa 0,0 l/m 0 min 0 min 45 W/m 16,1 km/h (3 Bft) 100,00 %
27.11.2021 15:08 5,3 C 5,0 C 2,2 C 79 % 991,2 hPa 0,0 l/m 0 min 0 min 52 W/m 16,1 km/h (3 Bft) 100,00 %
27.11.2021 15:06 5,3 C 5,0 C 2,2 C 80 % 991,2 hPa 0,0 l/m 0 min 0 min 53 W/m 9,7 km/h (2 Bft) 100,00 %
27.11.2021 15:04 5,3 C 5,0 C 2,2 C 79 % 991,2 hPa 0,0 l/m 0 min 0 min 49 W/m 6,4 km/h (2 Bft) 100,00 %
27.11.2021 15:02 5,3 C 5,0 C 2,2 C 79 % 991,2 hPa 0,0 l/m 0 min 0 min 42 W/m 3,2 km/h (1 Bft) 100,00 %
27.11.2021 15:00 5,4 C 5,0 C 2,2 C 79 % 991,1 hPa 0,0 l/m 0 min 0 min 40 W/m 6,4 km/h (2 Bft) 100,00 %
27.11.2021 14:58 5,4 C 5,0 C 2,2 C 79 % 991,1 hPa 0,0 l/m 0 min 0 min 40 W/m 9,7 km/h (2 Bft) 97,87 %
27.11.2021 14:56 5,4 C 5,0 C 2,2 C 79 % 991,1 hPa 0,0 l/m 0 min 0 min 42 W/m 9,7 km/h (2 Bft) 97,87 %
27.11.2021 14:54 5,5 C 5,0 C 2,2 C 79 % 991,1 hPa 0,0 l/m 0 min 0 min 68 W/m 12,9 km/h (3 Bft) 100,00 %
27.11.2021 14:52 5,5 C 5,0 C 2,2 C 79 % 991,1 hPa 0,0 l/m 2 min 0 min 106 W/m 16,1 km/h (3 Bft) 100,00 %
27.11.2021 14:50 5,5 C 5,0 C 2,2 C 78 % 991,0 hPa 0,0 l/m 2 min 0 min 93 W/m 12,9 km/h (3 Bft) 100,00 %
27.11.2021 14:48 5,6 C 5,0 C 2,2 C 78 % 991,0 hPa 0,0 l/m 0 min 0 min 41 W/m 16,1 km/h (3 Bft) 100,00 %
27.11.2021 14:46 5,7 C 5,0 C 2,2 C 78 % 991,1 hPa 0,0 l/m 0 min 0 min 40 W/m 6,4 km/h (2 Bft) 100,00 %
27.11.2021 14:44 5,8 C 5,6 C 2,8 C 78 % 991,0 hPa 0,0 l/m 0 min 0 min 42 W/m 16,1 km/h (3 Bft) 100,00 %
27.11.2021 14:42 5,8 C 5,6 C 2,8 C 78 % 991,1 hPa 0,0 l/m 0 min 0 min 50 W/m 22,5 km/h (4 Bft) 100,00 %
27.11.2021 14:40 5,8 C 6,7 C 2,8 C 78 % 991,0 hPa 0,0 l/m 0 min 0 min 56 W/m 16,1 km/h (3 Bft) 100,00 %
27.11.2021 14:38 5,9 C 7,2 C 2,8 C 79 % 991,0 hPa 0,0 l/m 0 min 0 min 63 W/m 19,3 km/h (3 Bft) 100,00 %
27.11.2021 14:36 5,9 C 9,4 C 2,8 C 79 % 991,0 hPa 0,0 l/m 2 min 0 min 127 W/m 12,9 km/h (3 Bft) 100,00 %
27.11.2021 14:34 5,8 C 10,6 C 2,8 C 79 % 991,0 hPa 0,0 l/m 2 min 0 min 194 W/m 12,9 km/h (3 Bft) 100,00 %
27.11.2021 14:32 5,8 C 10,0 C 2,8 C 79 % 991,0 hPa 0,0 l/m 2 min 0 min 200 W/m 9,7 km/h (2 Bft) 100,00 %
27.11.2021 14:30 5,8 C 8,9 C 2,8 C 79 % 991,0 hPa 0,0 l/m 2 min 0 min 192 W/m 6,4 km/h (2 Bft) 100,00 %
27.11.2021 14:28 5,7 C 7,8 C 2,8 C 79 % 991,0 hPa 0,0 l/m 2 min 0 min 207 W/m 6,4 km/h (2 Bft) 100,00 %
27.11.2021 14:26 5,6 C 7,8 C 2,8 C 79 % 991,0 hPa 0,0 l/m 2 min 0 min 216 W/m 6,4 km/h (2 Bft) 97,87 %
27.11.2021 14:24 5,6 C 7,8 C 2,8 C 79 % 990,9 hPa 0,0 l/m 2 min 0 min 191 W/m 6,4 km/h (2 Bft) 100,00 %
27.11.2021 14:22 5,6 C 7,2 C 2,8 C 79 % 990,9 hPa 0,0 l/m 2 min 0 min 194 W/m 3,2 km/h (1 Bft) 97,87 %
27.11.2021 14:20 5,5 C 7,2 C 2,8 C 78 % 991,0 hPa 0,0 l/m 2 min 0 min 136 W/m 12,9 km/h (3 Bft) 100,00 %
27.11.2021 14:18 5,6 C 6,1 C 2,8 C 78 % 990,9 hPa 0,0 l/m 0 min 0 min 98 W/m 12,9 km/h (3 Bft) 100,00 %
27.11.2021 14:16 5,6 C 6,1 C 2,8 C 78 % 990,9 hPa 0,0 l/m 2 min 0 min 129 W/m 19,3 km/h (3 Bft) 100,00 %
27.11.2021 14:14 5,6 C 5,6 C 2,8 C 77 % 990,9 hPa 0,0 l/m 0 min 0 min 59 W/m 19,3 km/h (3 Bft) 100,00 %
27.11.2021 14:12 5,8 C 5,6 C 2,8 C 77 % 990,9 hPa 0,0 l/m 0 min 0 min 46 W/m 16,1 km/h (3 Bft) 100,00 %
27.11.2021 14:10 5,9 C 6,1 C 2,8 C 77 % 990,9 hPa 0,0 l/m 0 min 0 min 76 W/m 12,9 km/h (3 Bft) 100,00 %
27.11.2021 14:08 6,0 C 6,7 C 2,8 C 76 % 990,9 hPa 0,0 l/m 0 min 0 min 64 W/m 16,1 km/h (3 Bft) 97,87 %
27.11.2021 14:06 6,0 C 7,8 C 2,8 C 76 % 990,9 hPa 0,0 l/m 0 min 0 min 97 W/m 6,4 km/h (2 Bft) 95,65 %
27.11.2021 14:04 6,1 C 8,3 C 2,8 C 76 % 990,9 hPa 0,0 l/m 2 min 0 min 249 W/m 12,9 km/h (3 Bft) 97,87 %
27.11.2021 14:02 6,1 C 8,3 C 2,8 C 76 % 990,9 hPa 0,0 l/m 2 min 0 min 162 W/m 16,1 km/h (3 Bft) 97,87 %
27.11.2021 14:00 6,2 C 7,2 C 3,3 C 76 % 990,8 hPa 0,0 l/m 0 min 0 min 68 W/m 12,9 km/h (3 Bft) 97,87 %
27.11.2021 13:58 6,2 C 7,8 C 3,3 C 77 % 990,8 hPa 0,0 l/m 2 min 0 min 128 W/m 16,1 km/h (3 Bft) 95,74 %
27.11.2021 13:56 6,3 C 8,9 C 3,3 C 77 % 990,8 hPa 0,0 l/m 2 min 0 min 281 W/m 12,9 km/h (3 Bft) 97,83 %
27.11.2021 13:54 6,2 C 9,4 C 3,3 C 76 % 990,8 hPa 0,0 l/m 2 min 0 min 334 W/m 12,9 km/h (3 Bft) 95,74 %
27.11.2021 13:52 6,1 C 8,9 C 3,3 C 76 % 990,8 hPa 0,0 l/m 2 min 0 min 363 W/m 9,7 km/h (2 Bft) 97,87 %
27.11.2021 13:50 6,1 C 7,8 C 3,3 C 75 % 990,8 hPa 0,0 l/m 2 min 0 min 306 W/m 16,1 km/h (3 Bft) 97,87 %
27.11.2021 13:48 6,2 C 6,7 C 3,3 C 74 % 990,8 hPa 0,0 l/m 2 min 0 min 160 W/m 19,3 km/h (3 Bft) 95,74 %
27.11.2021 13:46 6,3 C 6,7 C 3,3 C 74 % 990,8 hPa 0,0 l/m 0 min 0 min 120 W/m 16,1 km/h (3 Bft) 97,87 %
27.11.2021 13:44 6,4 C 7,8 C 3,3 C 74 % 990,7 hPa 0,0 l/m 2 min 0 min 151 W/m 9,7 km/h (2 Bft) 95,74 %
27.11.2021 13:42 6,4 C 8,9 C 3,3 C 73 % 990,7 hPa 0,0 l/m 2 min 0 min 220 W/m 12,9 km/h (3 Bft) 93,48 %
27.11.2021 13:40 6,4 C 8,9 C 3,3 C 72 % 990,7 hPa 0,0 l/m 2 min 0 min 181 W/m 19,3 km/h (3 Bft) 95,74 %
27.11.2021 13:38 6,5 C 10,6 C 3,3 C 72 % 990,7 hPa 0,0 l/m 2 min 0 min 295 W/m 12,9 km/h (3 Bft) 95,74 %
27.11.2021 13:36 6,5 C 11,7 C 3,3 C 72 % 990,7 hPa 0,0 l/m 2 min 0 min 268 W/m 16,1 km/h (3 Bft) 93,62 %
27.11.2021 13:34 6,6 C 12,8 C 3,3 C 72 % 990,6 hPa 0,0 l/m 2 min 0 min 288 W/m 19,3 km/h (3 Bft) 93,62 %
27.11.2021 13:32 6,6 C 13,3 C 3,3 C 72 % 990,6 hPa 0,0 l/m 2 min 0 min 287 W/m 12,9 km/h (3 Bft) 95,65 %
27.11.2021 13:30 6,6 C 13,3 C 3,3 C 72 % 990,6 hPa 0,0 l/m 2 min 0 min 294 W/m 16,1 km/h (3 Bft) 93,62 %
27.11.2021 13:28 6,7 C 13,3 C 3,3 C 73 % 990,6 hPa 0,0 l/m 2 min 0 min 295 W/m 16,1 km/h (3 Bft) 95,74 %
27.11.2021 13:26 6,7 C 14,4 C 3,3 C 73 % 990,6 hPa 0,0 l/m 2 min 0 min 298 W/m 16,1 km/h (3 Bft) 95,74 %
27.11.2021 13:24 6,7 C 15,0 C 3,3 C 74 % 990,5 hPa 0,0 l/m 2 min 0 min 295 W/m 12,9 km/h (3 Bft) 93,62 %
27.11.2021 13:22 6,6 C 15,6 C 3,3 C 74 % 990,6 hPa 0,0 l/m 2 min 0 min 303 W/m 3,2 km/h (1 Bft) 95,74 %
27.11.2021 13:20 6,5 C 15,0 C 3,3 C 74 % 990,5 hPa 0,0 l/m 2 min 0 min 311 W/m 6,4 km/h (2 Bft) 93,48 %
27.11.2021 13:18 6,5 C 14,4 C 3,3 C 73 % 990,5 hPa 0,0 l/m 2 min 0 min 311 W/m 12,9 km/h (3 Bft) 95,74 %
27.11.2021 13:16 6,5 C 13,9 C 3,3 C 73 % 990,5 hPa 0,0 l/m 2 min 0 min 310 W/m 16,1 km/h (3 Bft) 93,62 %
27.11.2021 13:14 6,5 C 15,0 C 3,3 C 73 % 990,6 hPa 0,0 l/m 2 min 0 min 315 W/m 22,5 km/h (4 Bft) 95,74 %
27.11.2021 13:12 6,5 C 16,1 C 3,3 C 75 % 990,5 hPa 0,0 l/m 2 min 0 min 317 W/m 22,5 km/h (4 Bft) 95,74 %
27.11.2021 13:10 6,4 C 17,2 C 3,3 C 75 % 990,5 hPa 0,0 l/m 2 min 0 min 313 W/m 9,7 km/h (2 Bft) 95,74 %
27.11.2021 13:08 6,4 C 17,8 C 2,8 C 76 % 990,5 hPa 0,0 l/m 2 min 0 min 311 W/m 6,4 km/h (2 Bft) 95,65 %
27.11.2021 13:06 6,3 C 16,7 C 3,3 C 75 % 990,5 hPa 0,0 l/m 2 min 0 min 308 W/m 6,4 km/h (2 Bft) 95,74 %
27.11.2021 13:04 6,1 C 16,1 C 3,3 C 75 % 990,5 hPa 0,0 l/m 2 min 0 min 313 W/m 12,9 km/h (3 Bft) 93,62 %
27.11.2021 13:02 6,1 C 15,6 C 3,3 C 76 % 990,5 hPa 0,0 l/m 2 min 0 min 316 W/m 6,4 km/h (2 Bft) 93,62 %
27.11.2021 13:00 6,0 C 15,0 C 3,3 C 76 % 990,4 hPa 0,0 l/m 2 min 0 min 313 W/m 12,9 km/h (3 Bft) 97,87 %
27.11.2021 12:58 6,0 C 14,4 C 3,3 C 76 % 990,5 hPa 0,0 l/m 2 min 0 min 312 W/m 9,7 km/h (2 Bft) 97,87 %
27.11.2021 12:56 5,9 C 15,6 C 3,3 C 76 % 990,5 hPa 0,0 l/m 2 min 0 min 320 W/m 19,3 km/h (3 Bft) 97,83 %
27.11.2021 12:54 5,9 C 17,2 C 2,8 C 78 % 990,4 hPa 0,0 l/m 2 min 0 min 317 W/m 22,5 km/h (4 Bft) 97,87 %
27.11.2021 12:52 5,8 C 16,1 C 2,8 C 78 % 990,5 hPa 0,0 l/m 2 min 0 min 320 W/m 6,4 km/h (2 Bft) 97,87 %
27.11.2021 12:50 5,7 C 16,1 C 2,8 C 78 % 990,4 hPa 0,0 l/m 2 min 0 min 316 W/m 6,4 km/h (2 Bft) 97,87 %
27.11.2021 12:48 5,6 C 15,6 C 2,8 C 79 % 990,4 hPa 0,0 l/m 2 min 0 min 317 W/m 12,9 km/h (3 Bft) 97,87 %
27.11.2021 12:46 5,5 C 14,4 C 2,8 C 79 % 990,3 hPa 0,0 l/m 2 min 0 min 320 W/m 12,9 km/h (3 Bft) 97,87 %
27.11.2021 12:44 5,5 C 13,9 C 2,8 C 80 % 990,3 hPa 0,0 l/m 2 min 0 min 321 W/m 22,5 km/h (4 Bft) 95,65 %
27.11.2021 12:42 5,4 C 13,9 C 2,8 C 80 % 990,3 hPa 0,0 l/m 2 min 0 min 315 W/m 12,9 km/h (3 Bft) 97,87 %
27.11.2021 12:40 5,4 C 11,7 C 2,8 C 80 % 990,3 hPa 0,0 l/m 2 min 0 min 320 W/m 19,3 km/h (3 Bft) 97,87 %
27.11.2021 12:38 5,3 C 10,0 C 2,8 C 80 % 990,4 hPa 0,0 l/m 2 min 0 min 318 W/m 12,9 km/h (3 Bft) 97,87 %
27.11.2021 12:36 5,3 C 8,9 C 2,8 C 81 % 990,4 hPa 0,0 l/m 2 min 0 min 312 W/m 16,1 km/h (3 Bft) 93,62 %
27.11.2021 12:34 5,1 C 8,3 C 2,8 C 81 % 990,4 hPa 0,0 l/m 2 min 0 min 304 W/m 19,3 km/h (3 Bft) 97,87 %
27.11.2021 12:32 5,1 C 7,8 C 2,8 C 82 % 990,4 hPa 0,0 l/m 2 min 0 min 301 W/m 19,3 km/h (3 Bft) 97,83 %
27.11.2021 12:30 5,1 C 6,7 C 2,8 C 82 % 990,3 hPa 0,0 l/m 2 min 0 min 229 W/m 19,3 km/h (3 Bft) 97,87 %
27.11.2021 12:28 5,0 C 6,1 C 2,8 C 82 % 990,4 hPa 0,0 l/m 0 min 0 min 102 W/m 9,7 km/h (2 Bft) 100,00 %
27.11.2021 12:26 5,0 C 5,6 C 2,8 C 82 % 990,4 hPa 0,0 l/m 0 min 0 min 85 W/m 12,9 km/h (3 Bft) 97,87 %
27.11.2021 12:24 4,9 C 5,6 C 2,8 C 83 % 990,3 hPa 0,0 l/m 0 min 0 min 61 W/m 22,5 km/h (4 Bft) 97,87 %
27.11.2021 12:22 4,9 C 5,6 C 2,8 C 83 % 990,3 hPa 0,0 l/m 0 min 0 min 58 W/m 16,1 km/h (3 Bft) 97,83 %
27.11.2021 12:20 4,9 C 5,6 C 2,8 C 84 % 990,4 hPa 0,0 l/m 0 min 0 min 56 W/m 12,9 km/h (3 Bft) 97,87 %
27.11.2021 12:18 4,8 C 5,6 C 2,8 C 84 % 990,3 hPa 0,0 l/m 0 min 0 min 55 W/m 12,9 km/h (3 Bft) 97,87 %
27.11.2021 12:16 4,8 C 5,0 C 2,8 C 85 % 990,3 hPa 0,0 l/m 0 min 0 min 61 W/m 19,3 km/h (3 Bft) 97,87 %
27.11.2021 12:14 4,8 C 5,0 C 2,8 C 85 % 990,3 hPa 0,0 l/m 0 min 0 min 66 W/m 12,9 km/h (3 Bft) 97,87 %
27.11.2021 12:12 4,7 C 5,0 C 2,8 C 85 % 990,3 hPa 0,0 l/m 0 min 0 min 57 W/m 12,9 km/h (3 Bft) 95,74 %
27.11.2021 12:10 4,6 C 5,0 C 2,8 C 85 % 990,3 hPa 0,0 l/m 0 min 0 min 59 W/m 19,3 km/h (3 Bft) 100,00 %
27.11.2021 12:08 4,6 C 5,0 C 2,8 C 85 % 990,3 hPa 0,0 l/m 0 min 0 min 66 W/m 12,9 km/h (3 Bft) 98,96 %
27.11.2021 12:04 4,5 C 5,0 C 2,8 C 86 % 990,2 hPa 0,0 l/m 0 min 0 min 56 W/m 6,4 km/h (2 Bft) 97,87 %
27.11.2021 12:02 4,5 C 5,0 C 2,8 C 86 % 990,2 hPa 0,0 l/m 0 min 0 min 53 W/m 22,5 km/h (4 Bft) 95,74 %
27.11.2021 12:00 4,5 C 5,0 C 2,8 C 86 % 990,3 hPa 0,0 l/m 0 min 0 min 55 W/m 22,5 km/h (4 Bft) 100,00 %
27.11.2021 11:58 4,5 C 5,0 C 2,8 C 87 % 990,3 hPa 0,0 l/m 0 min 0 min 69 W/m 16,1 km/h (3 Bft) 100,00 %
27.11.2021 11:56 4,4 C 5,0 C 2,2 C 87 % 990,2 hPa 0,0 l/m 0 min 0 min 71 W/m 19,3 km/h (3 Bft) 100,00 %
27.11.2021 11:54 4,4 C 5,0 C 2,2 C 87 % 990,2 hPa 0,0 l/m 0 min 0 min 72 W/m 12,9 km/h (3 Bft) 97,87 %
27.11.2021 11:52 4,3 C 5,0 C 2,2 C 88 % 990,3 hPa 0,0 l/m 0 min 0 min 90 W/m 19,3 km/h (3 Bft) 95,74 %
27.11.2021 11:50 4,3 C 5,0 C 2,2 C 88 % 990,2 hPa 0,0 l/m 0 min 0 min 76 W/m 12,9 km/h (3 Bft) 100,00 %
27.11.2021 11:48 4,3 C 4,4 C 2,2 C 88 % 990,2 hPa 0,0 l/m 0 min 0 min 62 W/m 6,4 km/h (2 Bft) 100,00 %
27.11.2021 11:46 4,2 C 4,4 C 2,2 C 88 % 990,2 hPa 0,0 l/m 0 min 0 min 60 W/m 6,4 km/h (2 Bft) 100,00 %
27.11.2021 11:44 4,2 C 4,4 C 2,2 C 88 % 990,2 hPa 0,0 l/m 0 min 0 min 60 W/m 6,4 km/h (2 Bft) 100,00 %
27.11.2021 11:42 4,1 C 4,4 C 2,2 C 88 % 990,2 hPa 0,0 l/m 0 min 0 min 62 W/m 16,1 km/h (3 Bft) 100,00 %
27.11.2021 11:40 4,2 C 4,4 C 2,2 C 89 % 990,2 hPa 0,0 l/m 0 min 0 min 59 W/m 9,7 km/h (2 Bft) 97,87 %
27.11.2021 11:38 4,2 C 4,4 C 2,2 C 89 % 990,2 hPa 0,0 l/m 0 min 0 min 62 W/m 16,1 km/h (3 Bft) 100,00 %
27.11.2021 11:36 4,1 C 4,4 C 1,7 C 89 % 990,2 hPa 0,0 l/m 0 min 0 min 70 W/m 6,4 km/h (2 Bft) 97,87 %
27.11.2021 11:34 4,1 C 4,4 C 1,7 C 89 % 990,2 hPa 0,0 l/m 0 min 0 min 68 W/m 16,1 km/h (3 Bft) 100,00 %
27.11.2021 11:32 4,1 C 4,4 C 1,7 C 89 % 990,2 hPa 0,0 l/m 0 min 0 min 78 W/m 3,2 km/h (1 Bft) 100,00 %
27.11.2021 11:30 4,1 C 4,4 C 1,7 C 89 % 990,3 hPa 0,0 l/m 0 min 0 min 92 W/m 16,1 km/h (3 Bft) 100,00 %
27.11.2021 11:28 4,0 C 4,4 C 1,7 C 89 % 990,2 hPa 0,0 l/m 0 min 0 min 76 W/m 3,2 km/h (1 Bft) 100,00 %
27.11.2021 11:26 4,0 C 4,4 C 1,7 C 89 % 990,2 hPa 0,0 l/m 0 min 0 min 86 W/m 6,4 km/h (2 Bft) 100,00 %
27.11.2021 11:24 4,0 C 5,0 C 1,7 C 89 % 990,2 hPa 0,0 l/m 0 min 0 min 101 W/m 3,2 km/h (1 Bft) 100,00 %
27.11.2021 11:22 4,0 C 5,0 C 1,7 C 89 % 990,2 hPa 0,0 l/m 0 min 0 min 114 W/m 3,2 km/h (1 Bft) 100,00 %
27.11.2021 11:20 3,9 C 5,0 C 1,7 C 90 % 990,1 hPa 0,0 l/m 0 min 0 min 130 W/m 6,4 km/h (2 Bft) 100,00 %
27.11.2021 11:18 3,9 C 4,4 C 1,7 C 89 % 990,2 hPa 0,0 l/m 2 min 0 min 142 W/m 6,4 km/h (2 Bft) 95,74 %
27.11.2021 11:16 3,9 C 4,4 C 1,7 C 89 % 990,2 hPa 0,0 l/m 2 min 0 min 141 W/m 6,4 km/h (2 Bft) 100,00 %
27.11.2021 11:14 3,8 C 4,4 C 1,7 C 89 % 990,2 hPa 0,0 l/m 0 min 0 min 129 W/m 6,4 km/h (2 Bft) 100,00 %
27.11.2021 11:12 3,8 C 4,4 C 1,7 C 89 % 990,1 hPa 0,0 l/m 0 min 0 min 112 W/m 6,4 km/h (2 Bft) 100,00 %
27.11.2021 11:10 3,8 C 4,4 C 1,7 C 89 % 990,1 hPa 0,0 l/m 0 min 0 min 81 W/m 6,4 km/h (2 Bft) 97,87 %
27.11.2021 11:08 3,8 C 4,4 C 1,7 C 90 % 990,1 hPa 0,0 l/m 0 min 0 min 85 W/m 9,7 km/h (2 Bft) 97,87 %
27.11.2021 11:06 3,8 C 4,4 C 1,7 C 90 % 990,0 hPa 0,0 l/m 0 min 0 min 108 W/m 12,9 km/h (3 Bft) 97,87 %
27.11.2021 11:04 3,8 C 3,9 C 1,7 C 90 % 990,0 hPa 0,0 l/m 0 min 0 min 104 W/m 16,1 km/h (3 Bft) 95,74 %
27.11.2021 11:02 3,9 C 4,4 C 1,7 C 90 % 990,0 hPa 0,0 l/m 0 min 0 min 85 W/m 12,9 km/h (3 Bft) 97,87 %
27.11.2021 11:00 3,9 C 4,4 C 1,7 C 90 % 990,0 hPa 0,0 l/m 0 min 0 min 116 W/m 12,9 km/h (3 Bft) 95,65 %
27.11.2021 10:58 3,8 C 4,4 C 1,7 C 90 % 989,9 hPa 0,0 l/m 2 min 0 min 170 W/m 6,4 km/h (2 Bft) 97,87 %
27.11.2021 10:56 3,8 C 3,9 C 1,1 C 91 % 989,9 hPa 0,0 l/m 0 min 0 min 108 W/m 12,9 km/h (3 Bft) 97,87 %
27.11.2021 10:54 3,9 C 3,9 C 1,1 C 91 % 989,9 hPa 0,0 l/m 0 min 0 min 90 W/m 6,4 km/h (2 Bft) 97,87 %
27.11.2021 10:52 3,9 C 3,9 C 1,7 C 91 % 989,9 hPa 0,0 l/m 0 min 0 min 68 W/m 12,9 km/h (3 Bft) 97,87 %
27.11.2021 10:50 3,9 C 3,9 C 1,1 C 91 % 989,9 hPa 0,0 l/m 0 min 0 min 69 W/m 6,4 km/h (2 Bft) 97,87 %
27.11.2021 10:48 3,9 C 3,9 C 1,7 C 91 % 989,8 hPa 0,0 l/m 0 min 0 min 112 W/m 16,1 km/h (3 Bft) 97,83 %
27.11.2021 10:46 3,9 C 3,9 C 1,7 C 92 % 989,8 hPa 0,0 l/m 2 min 0 min 150 W/m 12,9 km/h (3 Bft) 97,87 %
27.11.2021 10:44 3,8 C 3,9 C 1,7 C 92 % 989,8 hPa 0,0 l/m 2 min 0 min 211 W/m 6,4 km/h (2 Bft) 97,87 %
27.11.2021 10:42 3,8 C 3,9 C 1,7 C 92 % 989,8 hPa 0,0 l/m 2 min 0 min 230 W/m 6,4 km/h (2 Bft) 100,00 %
27.11.2021 10:40 3,7 C 3,9 C 1,1 C 92 % 989,7 hPa 0,0 l/m 2 min 0 min 228 W/m 16,1 km/h (3 Bft) 100,00 %
27.11.2021 10:38 3,6 C 3,9 C 1,7 C 92 % 989,6 hPa 0,0 l/m 2 min 0 min 224 W/m 16,1 km/h (3 Bft) 100,00 %
27.11.2021 10:36 3,6 C 3,3 C 1,1 C 92 % 989,6 hPa 0,0 l/m 2 min 0 min 216 W/m 16,1 km/h (3 Bft) 100,00 %
27.11.2021 10:34 3,5 C 3,3 C 1,1 C 93 % 989,5 hPa 0,0 l/m 2 min 0 min 219 W/m 16,1 km/h (3 Bft) 100,00 %
27.11.2021 10:32 3,5 C 3,3 C 1,1 C 93 % 989,5 hPa 0,0 l/m 2 min 0 min 214 W/m 16,1 km/h (3 Bft) 100,00 %
27.11.2021 10:30 3,4 C 3,3 C 1,1 C 93 % 989,5 hPa 0,0 l/m 2 min 0 min 212 W/m 6,4 km/h (2 Bft) 97,87 %
27.11.2021 10:28 3,4 C 3,3 C 1,1 C 93 % 989,5 hPa 0,0 l/m 2 min 0 min 210 W/m 22,5 km/h (4 Bft) 100,00 %
27.11.2021 10:26 3,4 C 3,3 C 1,1 C 93 % 989,4 hPa 0,0 l/m 2 min 0 min 210 W/m 16,1 km/h (3 Bft) 97,87 %
27.11.2021 10:24 3,4 C 3,3 C 1,1 C 93 % 989,4 hPa 0,0 l/m 2 min 0 min 207 W/m 16,1 km/h (3 Bft) 100,00 %
27.11.2021 10:22 3,3 C 3,3 C 1,1 C 93 % 989,4 hPa 0,0 l/m 2 min 0 min 205 W/m 12,9 km/h (3 Bft) 97,87 %
27.11.2021 10:20 3,3 C 3,3 C 1,1 C 93 % 989,4 hPa 0,0 l/m 2 min 0 min 198 W/m 12,9 km/h (3 Bft) 100,00 %
27.11.2021 10:18 3,3 C 3,3 C 1,1 C 93 % 989,4 hPa 0,0 l/m 2 min 0 min 193 W/m 12,9 km/h (3 Bft) 100,00 %
27.11.2021 10:16 3,3 C 3,3 C 1,1 C 94 % 989,3 hPa 0,0 l/m 2 min 0 min 191 W/m 12,9 km/h (3 Bft) 100,00 %
27.11.2021 10:14 3,3 C 3,3 C 1,1 C 94 % 989,3 hPa 0,0 l/m 2 min 0 min 187 W/m 12,9 km/h (3 Bft) 97,87 %
27.11.2021 10:12 3,2 C 3,3 C 1,1 C 94 % 989,3 hPa 0,0 l/m 2 min 0 min 181 W/m 12,9 km/h (3 Bft) 100,00 %
27.11.2021 10:10 3,2 C 3,3 C 1,1 C 93 % 989,3 hPa 0,0 l/m 2 min 0 min 180 W/m 12,9 km/h (3 Bft) 100,00 %
27.11.2021 10:08 3,2 C 3,3 C 1,1 C 94 % 989,2 hPa 0,0 l/m 2 min 0 min 178 W/m 12,9 km/h (3 Bft) 100,00 %
27.11.2021 10:06 3,1 C 3,3 C 1,1 C 94 % 989,3 hPa 0,0 l/m 2 min 0 min 174 W/m 16,1 km/h (3 Bft) 100,00 %
27.11.2021 10:04 3,1 C 3,3 C 1,1 C 94 % 989,2 hPa 0,0 l/m 2 min 0 min 169 W/m 12,9 km/h (3 Bft) 100,00 %
27.11.2021 10:02 3,1 C 3,3 C 1,1 C 94 % 989,3 hPa 0,0 l/m 2 min 0 min 163 W/m 22,5 km/h (4 Bft) 97,87 %
27.11.2021 10:00 3,1 C 3,3 C 1,1 C 94 % 989,2 hPa 0,0 l/m 2 min 0 min 157 W/m 6,4 km/h (2 Bft) 97,83 %
27.11.2021 09:58 3,1 C 3,3 C 1,1 C 94 % 989,2 hPa 0,0 l/m 2 min 0 min 152 W/m 6,4 km/h (2 Bft) 95,74 %
27.11.2021 09:56 3,0 C 3,3 C 1,1 C 94 % 989,2 hPa 0,0 l/m 2 min 0 min 151 W/m 9,7 km/h (2 Bft) 95,74 %
27.11.2021 09:54 3,0 C 3,3 C 1,1 C 94 % 989,2 hPa 0,0 l/m 2 min 0 min 143 W/m 12,9 km/h (3 Bft) 56,52 %
27.11.2021 09:52 3,0 C 2,8 C 1,1 C 94 % 989,2 hPa 0,0 l/m 2 min 0 min 139 W/m 9,7 km/h (2 Bft) 91,49 %
27.11.2021 09:50 3,0 C 2,8 C 1,1 C 94 % 989,1 hPa 0,0 l/m 2 min 0 min 135 W/m 6,4 km/h (2 Bft) 95,74 %
27.11.2021 09:48 3,0 C 2,8 C 1,1 C 94 % 989,1 hPa 0,0 l/m 2 min 0 min 129 W/m 9,7 km/h (2 Bft) 93,48 %
27.11.2021 09:46 3,0 C 2,8 C 1,1 C 94 % 989,0 hPa 0,0 l/m 2 min 0 min 109 W/m 12,9 km/h (3 Bft) 95,74 %
27.11.2021 09:44 2,9 C 2,8 C 1,1 C 94 % 989,0 hPa 0,0 l/m 0 min 0 min 70 W/m 16,1 km/h (3 Bft) 95,74 %
27.11.2021 09:42 2,9 C 2,8 C 1,1 C 94 % 989,0 hPa 0,0 l/m 0 min 0 min 54 W/m 9,7 km/h (2 Bft) 93,62 %
27.11.2021 09:40 2,9 C 2,8 C 1,1 C 94 % 989,0 hPa 0,0 l/m 0 min 0 min 50 W/m 9,7 km/h (2 Bft) 97,87 %
27.11.2021 09:38 2,9 C 2,8 C 1,1 C 94 % 989,0 hPa 0,0 l/m 0 min 0 min 49 W/m 16,1 km/h (3 Bft) 95,74 %
27.11.2021 09:36 2,9 C 2,8 C 1,1 C 94 % 989,0 hPa 0,0 l/m 0 min 0 min 47 W/m 9,7 km/h (2 Bft) 93,48 %
27.11.2021 09:34 2,9 C 2,8 C 1,1 C 94 % 988,9 hPa 0,0 l/m 0 min 0 min 44 W/m 12,9 km/h (3 Bft) 95,74 %
27.11.2021 09:32 2,9 C 2,8 C 1,1 C 94 % 988,9 hPa 0,0 l/m 0 min 0 min 42 W/m 9,7 km/h (2 Bft) 95,74 %
27.11.2021 09:30 2,9 C 2,8 C 1,1 C 94 % 988,8 hPa 0,0 l/m 0 min 0 min 42 W/m 6,4 km/h (2 Bft) 95,74 %
27.11.2021 09:28 2,9 C 2,8 C 1,1 C 94 % 988,7 hPa 0,0 l/m 0 min 0 min 41 W/m 6,4 km/h (2 Bft) 95,74 %
27.11.2021 09:26 2,9 C 2,8 C 1,1 C 94 % 988,7 hPa 0,0 l/m 0 min 0 min 39 W/m 6,4 km/h (2 Bft) 95,74 %
27.11.2021 09:24 2,9 C 2,8 C 1,1 C 94 % 988,7 hPa 0,0 l/m 0 min 0 min 37 W/m 6,4 km/h (2 Bft) 93,48 %
27.11.2021 09:22 2,9 C 2,8 C 1,1 C 94 % 988,7 hPa 0,0 l/m 0 min 0 min 34 W/m 3,2 km/h (1 Bft) 95,74 %
27.11.2021 09:20 2,9 C 2,8 C 1,1 C 94 % 988,7 hPa 0,0 l/m 0 min 0 min 35 W/m 3,2 km/h (1 Bft) 95,74 %
27.11.2021 09:18 2,9 C 2,8 C 1,1 C 94 % 988,6 hPa 0,0 l/m 0 min 0 min 36 W/m 9,7 km/h (2 Bft) 100,00 %
27.11.2021 09:16 2,9 C 2,8 C 1,1 C 94 % 988,6 hPa 0,0 l/m 0 min 0 min 36 W/m 6,4 km/h (2 Bft) 100,00 %
27.11.2021 09:14 2,9 C 2,8 C 1,1 C 94 % 988,6 hPa 0,0 l/m 0 min 0 min 44 W/m 3,2 km/h (1 Bft) 97,83 %
27.11.2021 09:12 2,9 C 2,8 C 1,1 C 94 % 988,6 hPa 0,0 l/m 0 min 0 min 42 W/m 12,9 km/h (3 Bft) 93,62 %
27.11.2021 09:10 2,9 C 2,8 C 1,1 C 94 % 988,6 hPa 0,0 l/m 0 min 0 min 47 W/m 3,2 km/h (1 Bft) 100,00 %
27.11.2021 09:08 2,9 C 2,8 C 1,1 C 94 % 988,6 hPa 0,0 l/m 0 min 0 min 38 W/m 3,2 km/h (1 Bft) 100,00 %
27.11.2021 09:06 2,9 C 2,8 C 1,1 C 94 % 988,6 hPa 0,0 l/m 0 min 0 min 24 W/m 9,7 km/h (2 Bft) 100,00 %
27.11.2021 09:04 2,9 C 2,8 C 1,1 C 94 % 988,6 hPa 0,0 l/m 0 min 0 min 23 W/m 6,4 km/h (2 Bft) 98,00 %
27.11.2021 09:02 2,9 C 2,8 C 1,1 C 94 % 988,6 hPa 0,0 l/m 0 min 0 min 19 W/m 9,7 km/h (2 Bft) 91,49 %
27.11.2021 09:00 2,9 C 2,8 C 1,1 C 95 % 988,6 hPa 0,0 l/m 0 min 0 min 18 W/m 6,4 km/h (2 Bft) 97,87 %
27.11.2021 08:58 2,9 C 2,8 C 1,1 C 95 % 988,5 hPa 0,0 l/m 0 min 0 min 21 W/m 9,7 km/h (2 Bft) 97,87 %
27.11.2021 08:56 2,9 C 2,8 C 1,1 C 95 % 988,4 hPa 0,0 l/m 0 min 0 min 18 W/m 3,2 km/h (1 Bft) 97,87 %
27.11.2021 08:54 2,9 C 2,8 C 1,1 C 95 % 988,4 hPa 0,0 l/m 0 min 0 min 12 W/m 6,4 km/h (2 Bft) 97,87 %
27.11.2021 08:52 2,9 C 2,8 C 1,1 C 95 % 988,4 hPa 0,0 l/m 0 min 0 min 11 W/m 6,4 km/h (2 Bft) 97,83 %
27.11.2021 08:50 2,9 C 2,8 C 1,1 C 95 % 988,4 hPa 0,0 l/m 0 min 0 min 10 W/m 6,4 km/h (2 Bft) 95,74 %
27.11.2021 08:48 2,9 C 2,8 C 1,1 C 95 % 988,4 hPa 0,0 l/m 0 min 0 min 8 W/m 6,4 km/h (2 Bft) 97,87 %
27.11.2021 08:46 2,9 C 2,8 C 1,1 C 95 % 988,3 hPa 0,0 l/m 0 min 0 min 7 W/m 9,7 km/h (2 Bft) 97,87 %
27.11.2021 08:44 2,9 C 2,8 C 1,1 C 95 % 988,3 hPa 0,0 l/m 0 min 0 min 7 W/m 6,4 km/h (2 Bft) 97,87 %
27.11.2021 08:42 2,9 C 2,8 C 1,1 C 95 % 988,2 hPa 0,0 l/m 0 min 0 min 5 W/m 12,9 km/h (3 Bft) 95,74 %
27.11.2021 08:40 2,9 C 2,8 C 1,1 C 95 % 988,3 hPa 0,0 l/m 0 min 0 min 5 W/m 12,9 km/h (3 Bft) 89,13 %
27.11.2021 08:38 2,9 C 2,8 C 1,1 C 95 % 988,2 hPa 0,0 l/m 0 min 0 min 1 W/m 6,4 km/h (2 Bft) 91,30 %
27.11.2021 08:36 2,8 C 2,8 C 1,1 C 95 % 988,1 hPa 0,0 l/m 0 min 0 min 0 W/m 9,7 km/h (2 Bft) 97,87 %
27.11.2021 08:34 2,9 C 2,8 C 1,1 C 95 % 988,1 hPa 0,0 l/m 0 min 0 min 0 W/m 9,7 km/h (2 Bft) 97,87 %
27.11.2021 08:32 2,8 C 2,8 C 1,1 C 95 % 988,1 hPa 0,0 l/m 0 min 0 min 0 W/m 9,7 km/h (2 Bft) 97,87 %
27.11.2021 08:30 2,9 C 2,8 C 1,1 C 95 % 988,0 hPa 0,0 l/m 0 min 0 min 0 W/m 12,9 km/h (3 Bft) 95,74 %
27.11.2021 08:28 2,9 C 2,8 C 1,1 C 95 % 988,0 hPa 0,0 l/m 0 min 0 min 0 W/m 12,9 km/h (3 Bft) 97,83 %
27.11.2021 08:26 2,9 C 2,8 C 1,1 C 95 % 988,0 hPa 0,0 l/m 0 min 0 min 0 W/m 6,4 km/h (2 Bft) 95,74 %
27.11.2021 08:24 2,9 C 2,8 C 1,1 C 95 % 987,9 hPa 0,0 l/m 0 min 0 min 0 W/m 12,9 km/h (3 Bft) 97,87 %
27.11.2021 08:22 2,8 C 2,8 C 1,1 C 95 % 987,9 hPa 0,0 l/m 0 min 0 min 0 W/m 6,4 km/h (2 Bft) 97,87 %
27.11.2021 08:20 2,8 C 2,8 C 1,1 C 95 % 987,8 hPa 0,0 l/m 0 min 0 min 0 W/m 16,1 km/h (3 Bft) 97,87 %
27.11.2021 08:18 2,8 C 2,8 C 1,1 C 95 % 987,8 hPa 0,0 l/m 0 min 0 min 0 W/m 12,9 km/h (3 Bft) 97,87 %
27.11.2021 08:16 2,8 C 2,8 C 1,1 C 95 % 987,8 hPa 0,0 l/m 0 min 0 min 0 W/m 12,9 km/h (3 Bft) 97,83 %
27.11.2021 08:14 2,8 C 2,2 C 1,1 C 95 % 987,7 hPa 0,0 l/m 0 min 0 min 0 W/m 6,4 km/h (2 Bft) 97,87 %
27.11.2021 08:12 2,8 C 2,8 C 1,1 C 95 % 987,7 hPa 0,0 l/m 0 min 0 min 0 W/m 3,2 km/h (1 Bft) 100,00 %
27.11.2021 08:10 2,8 C 2,2 C 1,1 C 95 % 987,6 hPa 0,0 l/m 0 min 0 min 0 W/m 0,0 km/h (0 Bft) 100,00 %
27.11.2021 08:08 2,8 C 2,2 C 1,1 C 95 % 987,6 hPa 0,0 l/m 0 min 0 min 0 W/m 3,2 km/h (1 Bft) 100,00 %
27.11.2021 08:06 2,8 C 2,2 C 1,1 C 95 % 987,5 hPa 0,0 l/m 0 min 0 min 0 W/m 9,7 km/h (2 Bft) 100,00 %
27.11.2021 08:04 2,8 C 2,2 C 1,1 C 95 % 987,5 hPa 0,0 l/m 0 min 0 min 0 W/m 3,2 km/h (1 Bft) 97,83 %
27.11.2021 08:02 2,8 C 2,2 C 1,1 C 95 % 987,5 hPa 0,0 l/m 0 min 0 min 0 W/m 6,4 km/h (2 Bft) 97,87 %
27.11.2021 08:00 2,8 C 2,2 C 1,1 C 95 % 987,5 hPa 0,0 l/m 0 min 0 min 0 W/m 6,4 km/h (2 Bft) 95,74 %
27.11.2021 07:58 2,8 C 2,2 C 1,1 C 95 % 987,4 hPa 0,0 l/m 0 min 0 min 0 W/m 3,2 km/h (1 Bft) 97,87 %
27.11.2021 07:56 2,8 C 2,2 C 1,1 C 95 % 987,4 hPa 0,0 l/m 0 min 0 min 0 W/m 6,4 km/h (2 Bft) 97,87 %
27.11.2021 07:54 2,7 C 2,2 C 1,1 C 95 % 987,4 hPa 0,0 l/m 0 min 0 min 0 W/m 0,0 km/h (0 Bft) 98,11 %
27.11.2021 07:52 2,7 C 2,2 C 1,1 C 95 % 987,4 hPa 0,0 l/m 0 min 0 min 0 W/m 3,2 km/h (1 Bft) 95,74 %
27.11.2021 07:50 2,7 C 2,2 C 1,1 C 95 % 987,3 hPa 0,0 l/m 0 min 0 min 0 W/m 3,2 km/h (1 Bft) 97,87 %
27.11.2021 07:48 2,7 C 2,2 C 1,1 C 95 % 987,3 hPa 0,0 l/m 0 min 0 min 0 W/m 3,2 km/h (1 Bft) 95,74 %
27.11.2021 07:46 2,7 C 2,2 C 1,1 C 95 % 987,2 hPa 0,0 l/m 0 min 0 min 0 W/m 3,2 km/h (1 Bft) 97,87 %
27.11.2021 07:44 2,7 C 2,2 C 1,1 C 95 % 987,2 hPa 0,0 l/m 0 min 0 min 0 W/m 6,4 km/h (2 Bft) 97,83 %
27.11.2021 07:42 2,6 C 2,2 C 1,1 C 95 % 987,2 hPa 0,0 l/m 0 min 0 min 0 W/m 6,4 km/h (2 Bft) 93,62 %
27.11.2021 07:40 2,6 C 2,2 C 1,1 C 95 % 987,1 hPa 0,0 l/m 0 min 0 min 0 W/m 16,1 km/h (3 Bft) 97,87 %
27.11.2021 07:38 2,6 C 2,2 C 1,1 C 95 % 987,1 hPa 0,0 l/m 0 min 0 min 0 W/m 6,4 km/h (2 Bft) 97,87 %
27.11.2021 07:36 2,6 C 2,2 C 1,1 C 95 % 987,1 hPa 0,0 l/m 0 min 0 min 0 W/m 6,4 km/h (2 Bft) 97,87 %
27.11.2021 07:34 2,6 C 2,2 C 1,1 C 95 % 987,1 hPa 0,0 l/m 0 min 0 min 0 W/m 12,9 km/h (3 Bft) 97,87 %
27.11.2021 07:32 2,6 C 2,2 C 1,1 C 95 % 987,0 hPa 0,0 l/m 0 min 0 min 0 W/m 6,4 km/h (2 Bft) 97,83 %
27.11.2021 07:30 2,5 C 2,2 C 1,1 C 95 % 987,0 hPa 0,0 l/m 0 min 0 min 0 W/m 16,1 km/h (3 Bft) 95,74 %
27.11.2021 07:28 2,5 C 2,2 C 1,1 C 95 % 987,0 hPa 0,0 l/m 0 min 0 min 0 W/m 9,7 km/h (2 Bft) 97,87 %
27.11.2021 07:26 2,5 C 2,2 C 1,1 C 95 % 986,9 hPa 0,0 l/m 0 min 0 min 0 W/m 6,4 km/h (2 Bft) 97,87 %
27.11.2021 07:24 2,5 C 2,2 C 1,1 C 95 % 986,9 hPa 0,0 l/m 0 min 0 min 0 W/m 9,7 km/h (2 Bft) 97,87 %
27.11.2021 07:22 2,5 C 2,2 C 1,1 C 95 % 986,9 hPa 0,0 l/m 0 min 0 min 0 W/m 6,4 km/h (2 Bft) 97,87 %
27.11.2021 07:20 2,5 C 2,2 C 1,1 C 95 % 986,8 hPa 0,0 l/m 0 min 0 min 0 W/m 6,4 km/h (2 Bft) 97,83 %
27.11.2021 07:18 2,4 C 2,2 C 1,1 C 95 % 986,8 hPa 0,0 l/m 0 min 0 min 0 W/m 6,4 km/h (2 Bft) 97,87 %
27.11.2021 07:16 2,4 C 2,2 C 1,1 C 95 % 986,8 hPa 0,0 l/m 0 min 0 min 0 W/m 19,3 km/h (3 Bft) 97,87 %
27.11.2021 07:14 2,4 C 2,2 C 1,1 C 95 % 986,7 hPa 0,0 l/m 0 min 0 min 0 W/m 12,9 km/h (3 Bft) 97,87 %
27.11.2021 07:12 2,4 C 2,2 C 0,6 C 95 % 986,7 hPa 0,0 l/m 0 min 0 min 0 W/m 12,9 km/h (3 Bft) 97,56 %
27.11.2021 07:10 2,4 C 2,2 C 0,6 C 95 % 986,7 hPa 0,0 l/m 0 min 0 min 0 W/m 9,7 km/h (2 Bft) 52,27 %
27.11.2021 07:08 2,4 C 1,7 C 0,6 C 95 % 986,7 hPa 0,0 l/m 0 min 0 min 0 W/m 6,4 km/h (2 Bft) 97,83 %
27.11.2021 07:06 2,4 C 1,7 C 0,6 C 95 % 986,7 hPa 0,0 l/m 0 min 0 min 0 W/m 6,4 km/h (2 Bft) 97,87 %
27.11.2021 07:04 2,4 C 1,7 C 0,6 C 95 % 986,6 hPa 0,0 l/m 0 min 0 min 0 W/m 6,4 km/h (2 Bft) 97,87 %
27.11.2021 07:02 2,4 C 1,7 C 0,6 C 95 % 986,6 hPa 0,0 l/m 0 min 0 min 0 W/m 3,2 km/h (1 Bft) 100,00 %
27.11.2021 07:00 2,4 C 1,7 C 0,6 C 95 % 986,6 hPa 0,0 l/m 0 min 0 min 0 W/m 3,2 km/h (1 Bft) 95,74 %
27.11.2021 06:58 2,4 C 1,7 C 0,6 C 95 % 986,6 hPa 0,0 l/m 0 min 0 min 0 W/m 3,2 km/h (1 Bft) 97,87 %
27.11.2021 06:56 2,4 C 1,7 C 0,6 C 95 % 986,6 hPa 0,0 l/m 0 min 0 min 0 W/m 3,2 km/h (1 Bft) 96,55 %
27.11.2021 06:54 2,4 C 2,2 C 0,6 C 95 % 986,6 hPa 0,0 l/m 0 min 0 min 0 W/m 3,2 km/h (1 Bft) 93,62 %
27.11.2021 06:52 2,3 C 2,2 C 0,6 C 95 % 986,5 hPa 0,0 l/m 0 min 0 min 0 W/m 3,2 km/h (1 Bft) 100,00 %
27.11.2021 06:50 2,3 C 2,2 C 0,6 C 95 % 986,6 hPa 0,0 l/m 0 min 0 min 0 W/m 6,4 km/h (2 Bft) 97,87 %
27.11.2021 06:48 2,3 C 2,2 C 0,6 C 95 % 986,6 hPa 0,0 l/m 0 min 0 min 0 W/m 9,7 km/h (2 Bft) 100,00 %
27.11.2021 06:46 2,3 C 1,7 C 0,6 C 95 % 986,6 hPa 0,0 l/m 0 min 0 min 0 W/m 6,4 km/h (2 Bft) 100,00 %
27.11.2021 06:44 2,3 C 1,7 C 0,6 C 95 % 986,5 hPa 0,0 l/m 0 min 0 min 0 W/m 12,9 km/h (3 Bft) 94,29 %
27.11.2021 06:42 2,3 C 1,7 C 0,6 C 95 % 986,5 hPa 0,0 l/m 0 min 0 min 0 W/m 9,7 km/h (2 Bft) 96,55 %
27.11.2021 06:40 2,3 C 1,7 C 0,6 C 95 % 986,5 hPa 0,0 l/m 0 min 0 min 0 W/m 16,1 km/h (3 Bft) 100,00 %
27.11.2021 06:38 2,3 C 1,7 C 0,6 C 95 % 986,4 hPa 0,0 l/m 0 min 0 min 0 W/m 6,4 km/h (2 Bft) 97,87 %
27.11.2021 06:36 2,3 C 1,7 C 0,6 C 95 % 986,4 hPa 0,0 l/m 0 min 0 min 0 W/m 3,2 km/h (1 Bft) 100,00 %
27.11.2021 06:34 2,4 C 1,7 C 0,6 C 95 % 986,3 hPa 0,0 l/m 0 min 0 min 0 W/m 6,4 km/h (2 Bft) 100,00 %
27.11.2021 06:32 2,4 C 1,7 C 0,6 C 95 % 986,4 hPa 0,0 l/m 0 min 0 min 0 W/m 12,9 km/h (3 Bft) 100,00 %
27.11.2021 06:30 2,4 C 1,7 C 0,6 C 95 % 986,4 hPa 0,0 l/m 0 min 0 min 0 W/m 12,9 km/h (3 Bft) 100,00 %
27.11.2021 06:28 2,4 C 1,7 C 0,6 C 95 % 986,4 hPa 0,0 l/m 0 min 0 min 0 W/m 9,7 km/h (2 Bft) 100,00 %
27.11.2021 06:26 2,4 C 1,7 C 0,6 C 95 % 986,4 hPa 0,0 l/m 0 min 0 min 0 W/m 12,9 km/h (3 Bft) 100,00 %
27.11.2021 06:24 2,5 C 2,2 C 0,6 C 95 % 986,3 hPa 0,0 l/m 0 min 0 min 0 W/m 16,1 km/h (3 Bft) 100,00 %
27.11.2021 06:22 2,5 C 2,2 C 0,6 C 95 % 986,3 hPa 0,0 l/m 0 min 0 min 0 W/m 12,9 km/h (3 Bft) 100,00 %
27.11.2021 06:20 2,5 C 2,2 C 1,1 C 95 % 986,2 hPa 0,0 l/m 0 min 0 min 0 W/m 6,4 km/h (2 Bft) 100,00 %
27.11.2021 06:18 2,5 C 2,2 C 0,6 C 95 % 986,2 hPa 0,0 l/m 0 min 0 min 0 W/m 6,4 km/h (2 Bft) 100,00 %
27.11.2021 06:16 2,5 C 2,2 C 0,6 C 95 % 986,1 hPa 0,0 l/m 0 min 0 min 0 W/m 6,4 km/h (2 Bft) 100,00 %
27.11.2021 06:14 2,5 C 2,2 C 0,6 C 95 % 986,1 hPa 0,0 l/m 0 min 0 min 0 W/m 6,4 km/h (2 Bft) 100,00 %
27.11.2021 06:12 2,5 C 2,2 C 1,1 C 95 % 986,1 hPa 0,0 l/m 0 min 0 min 0 W/m 6,4 km/h (2 Bft) 94,92 %
27.11.2021 06:10 2,5 C 2,2 C 1,1 C 95 % 986,0 hPa 0,0 l/m 0 min 0 min 0 W/m 3,2 km/h (1 Bft) 97,14 %
27.11.2021 06:08 2,5 C 2,2 C 1,1 C 95 % 986,0 hPa 0,0 l/m 0 min 0 min 0 W/m 6,4 km/h (2 Bft) 95,70 %
27.11.2021 06:04 2,5 C 2,2 C 1,1 C 95 % 986,0 hPa 0,0 l/m 0 min 0 min 0 W/m 9,7 km/h (2 Bft) 95,83 %
27.11.2021 06:02 2,5 C 2,2 C 1,1 C 95 % 986,0 hPa 0,0 l/m 0 min 0 min 0 W/m 3,2 km/h (1 Bft) 100,00 %
27.11.2021 06:00 2,5 C 2,2 C 1,1 C 95 % 986,0 hPa 0,0 l/m 0 min 0 min 0 W/m 3,2 km/h (1 Bft) 97,87 %
27.11.2021 05:58 2,5 C 2,2 C 1,1 C 95 % 986,0 hPa 0,0 l/m 0 min 0 min 0 W/m 9,7 km/h (2 Bft) 97,87 %
27.11.2021 05:56 2,5 C 2,2 C 1,1 C 95 % 986,0 hPa 0,0 l/m 0 min 0 min 0 W/m 6,4 km/h (2 Bft) 95,74 %
27.11.2021 05:54 2,5 C 2,2 C 1,1 C 95 % 986,0 hPa 0,0 l/m 0 min 0 min 0 W/m 6,4 km/h (2 Bft) 95,65 %
27.11.2021 05:52 2,5 C 2,2 C 1,1 C 95 % 985,9 hPa 0,0 l/m 0 min 0 min 0 W/m 6,4 km/h (2 Bft) 95,74 %
27.11.2021 05:50 2,4 C 2,2 C 1,1 C 95 % 985,9 hPa 0,0 l/m 0 min 0 min 0 W/m 0,0 km/h (0 Bft) 93,62 %
27.11.2021 05:48 2,5 C 2,2 C 1,1 C 95 % 985,9 hPa 0,0 l/m 0 min 0 min 0 W/m 0,0 km/h (0 Bft) 93,62 %
27.11.2021 05:46 2,4 C 2,2 C 1,1 C 95 % 985,8 hPa 0,0 l/m 0 min 0 min 0 W/m 3,2 km/h (1 Bft) 93,62 %
27.11.2021 05:44 2,4 C 2,2 C 1,1 C 95 % 985,8 hPa 0,0 l/m 0 min 0 min 0 W/m 6,4 km/h (2 Bft) 95,74 %
27.11.2021 05:42 2,4 C 2,2 C 1,1 C 95 % 985,8 hPa 0,0 l/m 0 min 0 min 0 W/m 3,2 km/h (1 Bft) 95,65 %
27.11.2021 05:40 2,4 C 2,2 C 1,1 C 95 % 985,7 hPa 0,0 l/m 0 min 0 min 0 W/m 6,4 km/h (2 Bft) 97,87 %
27.11.2021 05:38 2,4 C 2,2 C 0,6 C 95 % 985,7 hPa 0,0 l/m 0 min 0 min 0 W/m 6,4 km/h (2 Bft) 97,87 %
27.11.2021 05:36 2,4 C 2,2 C 0,6 C 95 % 985,6 hPa 0,0 l/m 0 min 0 min 0 W/m 3,2 km/h (1 Bft) 95,74 %
27.11.2021 05:34 2,4 C 2,2 C 0,6 C 95 % 985,6 hPa 0,0 l/m 0 min 0 min 0 W/m 6,4 km/h (2 Bft) 97,87 %
27.11.2021 05:32 2,4 C 2,2 C 0,6 C 95 % 985,5 hPa 0,0 l/m 0 min 0 min 0 W/m 6,4 km/h (2 Bft) 97,87 %
27.11.2021 05:30 2,4 C 2,2 C 0,6 C 94 % 985,5 hPa 0,0 l/m 0 min 0 min 0 W/m 12,9 km/h (3 Bft) 95,65 %
27.11.2021 05:28 2,4 C 2,2 C 0,6 C 94 % 985,5 hPa 0,0 l/m 0 min 0 min 0 W/m 6,4 km/h (2 Bft) 97,87 %
27.11.2021 05:26 2,4 C 2,2 C 0,6 C 94 % 985,6 hPa 0,0 l/m 0 min 0 min 0 W/m 6,4 km/h (2 Bft) 93,62 %
27.11.2021 05:24 2,4 C 2,2 C 0,6 C 94 % 985,5 hPa 0,0 l/m 0 min 0 min 0 W/m 6,4 km/h (2 Bft) 95,74 %
27.11.2021 05:22 2,4 C 2,2 C 0,6 C 94 % 985,6 hPa 0,0 l/m 0 min 0 min 0 W/m 6,4 km/h (2 Bft) 95,74 %
27.11.2021 05:20 2,4 C 2,2 C 0,6 C 94 % 985,6 hPa 0,0 l/m 0 min 0 min 0 W/m 12,9 km/h (3 Bft) 97,87 %
27.11.2021 05:18 2,4 C 1,7 C 0,6 C 94 % 985,5 hPa 0,0 l/m 0 min 0 min 0 W/m 6,4 km/h (2 Bft) 97,83 %
27.11.2021 05:16 2,4 C 1,7 C 0,6 C 94 % 985,5 hPa 0,0 l/m 0 min 0 min 0 W/m 9,7 km/h (2 Bft) 97,87 %
27.11.2021 05:14 2,4 C 1,7 C 0,6 C 94 % 985,5 hPa 0,0 l/m 0 min 0 min 0 W/m 6,4 km/h (2 Bft) 97,87 %
27.11.2021 05:12 2,4 C 1,7 C 0,6 C 94 % 985,5 hPa 0,0 l/m 0 min 0 min 0 W/m 16,1 km/h (3 Bft) 95,74 %
27.11.2021 05:10 2,4 C 1,7 C 0,6 C 94 % 985,4 hPa 0,0 l/m 0 min 0 min 0 W/m 12,9 km/h (3 Bft) 97,87 %
27.11.2021 05:08 2,4 C 1,7 C 0,6 C 94 % 985,4 hPa 0,0 l/m 0 min 0 min 0 W/m 6,4 km/h (2 Bft) 95,74 %
27.11.2021 05:06 2,4 C 1,7 C 0,6 C 94 % 985,3 hPa 0,0 l/m 0 min 0 min 0 W/m 9,7 km/h (2 Bft) 93,48 %
27.11.2021 05:04 2,4 C 1,7 C 0,6 C 94 % 985,4 hPa 0,0 l/m 0 min 0 min 0 W/m 12,9 km/h (3 Bft) 95,83 %
27.11.2021 05:02 2,4 C 1,7 C 0,6 C 94 % 985,4 hPa 0,0 l/m 0 min 0 min 0 W/m 12,9 km/h (3 Bft) 95,74 %
27.11.2021 05:00 2,4 C 1,7 C 0,6 C 94 % 985,4 hPa 0,0 l/m 0 min 0 min 0 W/m 12,9 km/h (3 Bft) 95,74 %
27.11.2021 04:58 2,4 C 1,7 C 0,6 C 94 % 985,4 hPa 0,0 l/m 0 min 0 min 0 W/m 9,7 km/h (2 Bft) 97,87 %
27.11.2021 04:56 2,4 C 1,7 C 0,6 C 94 % 985,3 hPa 0,0 l/m 0 min 0 min 0 W/m 12,9 km/h (3 Bft) 97,87 %
27.11.2021 04:54 2,4 C 2,2 C 0,6 C 94 % 985,3 hPa 0,0 l/m 0 min 0 min 0 W/m 12,9 km/h (3 Bft) 97,83 %
27.11.2021 04:52 2,4 C 2,2 C 0,6 C 94 % 985,3 hPa 0,0 l/m 0 min 0 min 0 W/m 9,7 km/h (2 Bft) 97,87 %
27.11.2021 04:50 2,4 C 2,2 C 0,6 C 94 % 985,2 hPa 0,0 l/m 0 min 0 min 0 W/m 6,4 km/h (2 Bft) 97,87 %
27.11.2021 04:48 2,4 C 2,2 C 0,6 C 94 % 985,1 hPa 0,0 l/m 0 min 0 min 0 W/m 12,9 km/h (3 Bft) 95,74 %
27.11.2021 04:46 2,4 C 2,2 C 0,6 C 94 % 985,1 hPa 0,0 l/m 0 min 0 min 0 W/m 9,7 km/h (2 Bft) 97,87 %
27.11.2021 04:44 2,4 C 2,2 C 0,6 C 94 % 985,0 hPa 0,0 l/m 0 min 0 min 0 W/m 12,9 km/h (3 Bft) 97,83 %
27.11.2021 04:42 2,4 C 2,2 C 0,6 C 94 % 985,0 hPa 0,0 l/m 0 min 0 min 0 W/m 16,1 km/h (3 Bft) 97,87 %
27.11.2021 04:40 2,5 C 2,2 C 0,6 C 94 % 984,9 hPa 0,0 l/m 0 min 0 min 0 W/m 12,9 km/h (3 Bft) 97,87 %
27.11.2021 04:38 2,5 C 2,2 C 0,6 C 93 % 984,9 hPa 0,0 l/m 0 min 0 min 0 W/m 6,4 km/h (2 Bft) 97,87 %
27.11.2021 04:36 2,5 C 2,2 C 0,6 C 93 % 984,9 hPa 0,0 l/m 0 min 0 min 0 W/m 9,7 km/h (2 Bft) 95,74 %
27.11.2021 04:34 2,5 C 2,2 C 0,6 C 93 % 984,9 hPa 0,0 l/m 0 min 0 min 0 W/m 12,9 km/h (3 Bft) 95,74 %
27.11.2021 04:32 2,5 C 2,2 C 0,6 C 93 % 984,9 hPa 0,0 l/m 0 min 0 min 0 W/m 6,4 km/h (2 Bft) 54,35 %
27.11.2021 04:30 2,5 C 2,2 C 0,6 C 93 % 984,8 hPa 0,0 l/m 0 min 0 min 0 W/m 12,9 km/h (3 Bft) 95,74 %
27.11.2021 04:28 2,4 C 2,2 C 0,6 C 93 % 984,8 hPa 0,0 l/m 0 min 0 min 0 W/m 12,9 km/h (3 Bft) 97,87 %
27.11.2021 04:26 2,5 C 2,2 C 0,6 C 93 % 984,8 hPa 0,0 l/m 0 min 0 min 0 W/m 12,9 km/h (3 Bft) 97,87 %
27.11.2021 04:24 2,5 C 2,2 C 0,6 C 93 % 984,8 hPa 0,0 l/m 0 min 0 min 0 W/m 12,9 km/h (3 Bft) 100,00 %
27.11.2021 04:22 2,5 C 2,2 C 0,6 C 93 % 984,8 hPa 0,0 l/m 0 min 0 min 0 W/m 6,4 km/h (2 Bft) 97,87 %
27.11.2021 04:20 2,5 C 2,2 C 0,6 C 93 % 984,7 hPa 0,0 l/m 0 min 0 min 0 W/m 6,4 km/h (2 Bft) 97,83 %
27.11.2021 04:18 2,5 C 2,2 C 0,6 C 93 % 984,7 hPa 0,0 l/m 0 min 0 min 0 W/m 16,1 km/h (3 Bft) 97,87 %
27.11.2021 04:16 2,5 C 2,2 C 0,6 C 93 % 984,8 hPa 0,0 l/m 0 min 0 min 0 W/m 6,4 km/h (2 Bft) 95,74 %
27.11.2021 04:14 2,5 C 2,2 C 0,6 C 93 % 984,7 hPa 0,0 l/m 0 min 0 min 0 W/m 6,4 km/h (2 Bft) 95,74 %
27.11.2021 04:12 2,5 C 2,2 C 0,6 C 93 % 984,7 hPa 0,0 l/m 0 min 0 min 0 W/m 12,9 km/h (3 Bft) 97,87 %
27.11.2021 04:10 2,5 C 2,2 C 0,6 C 93 % 984,7 hPa 0,0 l/m 0 min 0 min 0 W/m 16,1 km/h (3 Bft) 97,87 %
27.11.2021 04:08 2,5 C 2,2 C 0,6 C 93 % 984,7 hPa 0,0 l/m 0 min 0 min 0 W/m 16,1 km/h (3 Bft) 95,65 %
27.11.2021 04:06 2,5 C 2,2 C 0,6 C 93 % 984,6 hPa 0,0 l/m 0 min 0 min 0 W/m 12,9 km/h (3 Bft) 97,87 %
27.11.2021 04:04 2,5 C 2,2 C 0,6 C 93 % 984,6 hPa 0,0 l/m 0 min 0 min 0 W/m 9,7 km/h (2 Bft) 95,74 %
27.11.2021 04:02 2,6 C 2,2 C 0,6 C 93 % 984,6 hPa 0,0 l/m 0 min 0 min 0 W/m 12,9 km/h (3 Bft) 100,00 %
27.11.2021 04:00 2,6 C 2,2 C 0,6 C 93 % 984,6 hPa 0,0 l/m 0 min 0 min 0 W/m 12,9 km/h (3 Bft) 97,87 %
27.11.2021 03:58 2,7 C 2,2 C 0,6 C 93 % 984,5 hPa 0,0 l/m 0 min 0 min 0 W/m 12,9 km/h (3 Bft) 93,62 %
27.11.2021 03:56 2,7 C 2,2 C 0,6 C 93 % 984,6 hPa 0,0 l/m 0 min 0 min 0 W/m 12,9 km/h (3 Bft) 97,83 %
27.11.2021 03:54 2,8 C 2,2 C 0,6 C 93 % 984,5 hPa 0,0 l/m 0 min 0 min 0 W/m 6,4 km/h (2 Bft) 97,87 %
27.11.2021 03:52 2,8 C 2,2 C 1,1 C 93 % 984,5 hPa 0,0 l/m 0 min 0 min 0 W/m 12,9 km/h (3 Bft) 97,87 %
27.11.2021 03:50 3,0 C 2,2 C 1,1 C 93 % 984,4 hPa 0,0 l/m 0 min 0 min 0 W/m 16,1 km/h (3 Bft) 100,00 %
27.11.2021 03:48 3,0 C 2,2 C 1,1 C 93 % 984,5 hPa 0,0 l/m 0 min 0 min 0 W/m 16,1 km/h (3 Bft) 97,87 %
27.11.2021 03:46 3,2 C 2,8 C 1,1 C 93 % 984,5 hPa 0,0 l/m 0 min 0 min 0 W/m 19,3 km/h (3 Bft) 97,87 %
27.11.2021 03:44 3,3 C 2,8 C 1,1 C 93 % 984,4 hPa 0,0 l/m 0 min 0 min 0 W/m 12,9 km/h (3 Bft) 97,83 %
27.11.2021 03:42 3,4 C 2,8 C 1,1 C 93 % 984,4 hPa 0,0 l/m 0 min 0 min 0 W/m 16,1 km/h (3 Bft) 100,00 %
27.11.2021 03:40 3,5 C 2,8 C 1,1 C 93 % 984,4 hPa 0,0 l/m 0 min 0 min 0 W/m 12,9 km/h (3 Bft) 100,00 %
27.11.2021 03:38 3,6 C 2,8 C 1,7 C 94 % 984,3 hPa 0,0 l/m 0 min 0 min 0 W/m 25,7 km/h (4 Bft) 100,00 %
27.11.2021 03:36 3,9 C 3,3 C 1,7 C 94 % 984,3 hPa 0,0 l/m 0 min 0 min 0 W/m 9,7 km/h (2 Bft) 48,72 %
27.11.2021 03:34 4,0 C 3,3 C 1,7 C 94 % 984,3 hPa 0,0 l/m 0 min 0 min 0 W/m 12,9 km/h (3 Bft) 100,00 %
27.11.2021 03:32 4,1 C 3,3 C 1,7 C 94 % 984,3 hPa 0,0 l/m 0 min 0 min 0 W/m 12,9 km/h (3 Bft) 100,00 %
27.11.2021 03:30 4,1 C 3,3 C 1,7 C 94 % 984,3 hPa 0,0 l/m 0 min 0 min 0 W/m 19,3 km/h (3 Bft) 100,00 %
27.11.2021 03:28 4,1 C 3,9 C 1,7 C 94 % 984,2 hPa 0,0 l/m 0 min 0 min 0 W/m 12,9 km/h (3 Bft) 100,00 %
27.11.2021 03:26 4,1 C 3,9 C 1,7 C 94 % 984,1 hPa 0,0 l/m 0 min 0 min 0 W/m 25,7 km/h (4 Bft) 100,00 %
27.11.2021 03:24 4,1 C 3,9 C 2,2 C 94 % 984,1 hPa 0,0 l/m 0 min 0 min 0 W/m 16,1 km/h (3 Bft) 100,00 %
27.11.2021 03:22 4,1 C 3,9 C 2,2 C 94 % 984,1 hPa 0,0 l/m 0 min 0 min 0 W/m 12,9 km/h (3 Bft) 100,00 %
27.11.2021 03:20 4,1 C 3,9 C 1,7 C 94 % 984,1 hPa 0,0 l/m 0 min 0 min 0 W/m 16,1 km/h (3 Bft) 100,00 %
27.11.2021 03:18 4,2 C 3,9 C 2,2 C 94 % 984,1 hPa 0,0 l/m 0 min 0 min 0 W/m 19,3 km/h (3 Bft) 97,87 %
27.11.2021 03:16 4,2 C 3,9 C 2,2 C 94 % 984,1 hPa 0,0 l/m 0 min 0 min 0 W/m 25,7 km/h (4 Bft) 100,00 %
27.11.2021 03:14 4,2 C 3,9 C 2,2 C 94 % 984,1 hPa 0,0 l/m 0 min 0 min 0 W/m 19,3 km/h (3 Bft) 100,00 %
27.11.2021 03:12 4,3 C 3,9 C 2,2 C 94 % 984,1 hPa 0,0 l/m 0 min 0 min 0 W/m 12,9 km/h (3 Bft) 97,87 %
27.11.2021 03:10 4,3 C 3,9 C 2,2 C 94 % 984,1 hPa 0,0 l/m 0 min 0 min 0 W/m 19,3 km/h (3 Bft) 100,00 %
27.11.2021 03:08 4,3 C 3,9 C 2,2 C 94 % 984,2 hPa 0,0 l/m 0 min 0 min 0 W/m 12,9 km/h (3 Bft) 100,00 %
27.11.2021 03:06 4,3 C 3,9 C 2,2 C 93 % 984,1 hPa 0,0 l/m 0 min 0 min 0 W/m 12,9 km/h (3 Bft) 100,00 %
27.11.2021 03:04 4,3 C 3,9 C 2,2 C 94 % 984,1 hPa 0,0 l/m 0 min 0 min 0 W/m 16,1 km/h (3 Bft) 97,87 %
27.11.2021 03:02 4,3 C 3,9 C 2,2 C 94 % 984,1 hPa 0,0 l/m 0 min 0 min 0 W/m 22,5 km/h (4 Bft) 100,00 %
27.11.2021 03:00 4,3 C 3,9 C 2,2 C 94 % 984,1 hPa 0,0 l/m 0 min 0 min 0 W/m 12,9 km/h (3 Bft) 100,00 %
27.11.2021 02:58 4,3 C 3,9 C 2,2 C 93 % 984,1 hPa 0,0 l/m 0 min 0 min 0 W/m 16,1 km/h (3 Bft) 100,00 %
27.11.2021 02:56 4,3 C 3,9 C 2,2 C 93 % 984,1 hPa 0,0 l/m 0 min 0 min 0 W/m 12,9 km/h (3 Bft) 97,87 %
27.11.2021 02:54 4,3 C 3,9 C 2,2 C 93 % 984,1 hPa 0,0 l/m 0 min 0 min 0 W/m 12,9 km/h (3 Bft) 100,00 %
27.11.2021 02:52 4,3 C 3,9 C 2,2 C 93 % 984,1 hPa 0,0 l/m 0 min 0 min 0 W/m 16,1 km/h (3 Bft) 100,00 %
27.11.2021 02:50 4,3 C 3,9 C 2,2 C 93 % 984,1 hPa 0,0 l/m 0 min 0 min 0 W/m 16,1 km/h (3 Bft) 97,87 %
27.11.2021 02:48 4,3 C 3,9 C 2,2 C 93 % 984,0 hPa 0,0 l/m 0 min 0 min 0 W/m 16,1 km/h (3 Bft) 100,00 %
27.11.2021 02:46 4,3 C 3,9 C 2,2 C 93 % 984,1 hPa 0,0 l/m 0 min 0 min 0 W/m 9,7 km/h (2 Bft) 97,83 %
27.11.2021 02:44 4,3 C 3,9 C 2,2 C 93 % 984,1 hPa 0,0 l/m 0 min 0 min 0 W/m 12,9 km/h (3 Bft) 100,00 %
27.11.2021 02:42 4,3 C 3,9 C 2,2 C 93 % 984,1 hPa 0,0 l/m 0 min 0 min 0 W/m 16,1 km/h (3 Bft) 97,87 %
27.11.2021 02:40 4,3 C 3,9 C 2,2 C 93 % 984,1 hPa 0,0 l/m 0 min 0 min 0 W/m 12,9 km/h (3 Bft) 95,74 %
27.11.2021 02:38 4,4 C 3,9 C 2,2 C 93 % 984,1 hPa 0,0 l/m 0 min 0 min 0 W/m 9,7 km/h (2 Bft) 93,62 %
27.11.2021 02:36 4,3 C 3,9 C 2,2 C 93 % 984,1 hPa 0,0 l/m 0 min 0 min 0 W/m 22,5 km/h (4 Bft) 95,74 %
27.11.2021 02:34 4,3 C 3,9 C 2,2 C 93 % 984,1 hPa 0,0 l/m 0 min 0 min 0 W/m 19,3 km/h (3 Bft) 91,30 %
27.11.2021 02:32 4,4 C 3,9 C 2,2 C 93 % 984,1 hPa 0,0 l/m 0 min 0 min 0 W/m 16,1 km/h (3 Bft) 89,36 %
27.11.2021 02:30 4,4 C 3,9 C 2,2 C 93 % 984,0 hPa 0,0 l/m 0 min 0 min 0 W/m 16,1 km/h (3 Bft) 91,49 %
27.11.2021 02:28 4,4 C 3,9 C 2,2 C 93 % 984,0 hPa 0,0 l/m 0 min 0 min 0 W/m 9,7 km/h (2 Bft) 93,62 %
27.11.2021 02:26 4,4 C 3,9 C 2,2 C 93 % 984,0 hPa 0,0 l/m 0 min 0 min 0 W/m 12,9 km/h (3 Bft) 91,49 %
27.11.2021 02:24 4,4 C 3,9 C 2,2 C 93 % 984,1 hPa 0,0 l/m 0 min 0 min 0 W/m 12,9 km/h (3 Bft) 93,62 %
27.11.2021 02:22 4,4 C 3,9 C 2,2 C 93 % 984,1 hPa 0,0 l/m 0 min 0 min 0 W/m 12,9 km/h (3 Bft) 93,48 %
27.11.2021 02:20 4,3 C 3,9 C 2,2 C 93 % 984,1 hPa 0,0 l/m 0 min 0 min 0 W/m 12,9 km/h (3 Bft) 89,36 %
27.11.2021 02:18 4,3 C 3,9 C 1,7 C 93 % 984,1 hPa 0,0 l/m 0 min 0 min 0 W/m 25,7 km/h (4 Bft) 93,62 %
27.11.2021 02:16 4,3 C 3,9 C 2,2 C 93 % 984,1 hPa 0,0 l/m 0 min 0 min 0 W/m 12,9 km/h (3 Bft) 93,62 %
27.11.2021 02:14 4,3 C 3,9 C 2,2 C 93 % 984,1 hPa 0,0 l/m 0 min 0 min 0 W/m 12,9 km/h (3 Bft) 93,62 %
27.11.2021 02:12 4,3 C 3,9 C 1,7 C 93 % 984,1 hPa 0,0 l/m 0 min 0 min 0 W/m 12,9 km/h (3 Bft) 93,62 %
27.11.2021 02:10 4,3 C 3,9 C 1,7 C 93 % 984,1 hPa 0,0 l/m 0 min 0 min 0 W/m 19,3 km/h (3 Bft) 93,48 %
27.11.2021 02:08 4,3 C 3,9 C 2,2 C 93 % 984,1 hPa 0,0 l/m 0 min 0 min 0 W/m 19,3 km/h (3 Bft) 91,49 %
27.11.2021 02:06 4,3 C 3,9 C 1,7 C 92 % 984,1 hPa 0,0 l/m 0 min 0 min 0 W/m 9,7 km/h (2 Bft) 93,62 %
27.11.2021 02:04 4,3 C 3,9 C 1,7 C 92 % 984,1 hPa 0,0 l/m 0 min 0 min 0 W/m 16,1 km/h (3 Bft) 89,36 %
27.11.2021 02:02 4,3 C 3,9 C 1,7 C 92 % 984,2 hPa 0,0 l/m 0 min 0 min 0 W/m 12,9 km/h (3 Bft) 91,49 %
27.11.2021 02:00 4,3 C 3,9 C 1,7 C 92 % 984,1 hPa 0,0 l/m 0 min 0 min 0 W/m 16,1 km/h (3 Bft) 93,62 %
27.11.2021 01:58 4,3 C 3,9 C 1,7 C 92 % 984,1 hPa 0,0 l/m 0 min 0 min 0 W/m 6,4 km/h (2 Bft) 97,83 %
27.11.2021 01:56 4,3 C 3,9 C 1,7 C 92 % 984,1 hPa 0,0 l/m 0 min 0 min 0 W/m 9,7 km/h (2 Bft) 97,87 %
27.11.2021 01:54 4,3 C 3,9 C 1,7 C 92 % 984,2 hPa 0,0 l/m 0 min 0 min 0 W/m 12,9 km/h (3 Bft) 97,87 %
27.11.2021 01:52 4,3 C 3,9 C 1,7 C 92 % 984,2 hPa 0,0 l/m 0 min 0 min 0 W/m 9,7 km/h (2 Bft) 97,87 %
27.11.2021 01:50 4,3 C 3,9 C 1,7 C 92 % 984,1 hPa 0,0 l/m 0 min 0 min 0 W/m 6,4 km/h (2 Bft) 91,49 %
27.11.2021 01:48 4,3 C 3,9 C 1,7 C 92 % 984,1 hPa 0,0 l/m 0 min 0 min 0 W/m 12,9 km/h (3 Bft) 100,00 %
27.11.2021 01:46 4,3 C 3,9 C 1,7 C 92 % 984,1 hPa 0,0 l/m 0 min 0 min 0 W/m 3,2 km/h (1 Bft) 97,83 %
27.11.2021 01:44 4,3 C 3,9 C 1,7 C 92 % 984,1 hPa 0,0 l/m 0 min 0 min 0 W/m 12,9 km/h (3 Bft) 100,00 %
27.11.2021 01:42 4,3 C 3,9 C 1,7 C 92 % 984,0 hPa 0,0 l/m 0 min 0 min 0 W/m 12,9 km/h (3 Bft) 100,00 %
27.11.2021 01:40 4,3 C 3,9 C 1,7 C 92 % 984,1 hPa 0,0 l/m 0 min 0 min 0 W/m 16,1 km/h (3 Bft) 100,00 %
27.11.2021 01:38 4,3 C 3,9 C 1,7 C 92 % 984,1 hPa 0,0 l/m 0 min 0 min 0 W/m 16,1 km/h (3 Bft) 100,00 %
27.11.2021 01:36 4,3 C 3,9 C 1,7 C 92 % 984,0 hPa 0,0 l/m 0 min 0 min 0 W/m 12,9 km/h (3 Bft) 100,00 %
27.11.2021 01:34 4,3 C 3,9 C 1,7 C 92 % 984,1 hPa 0,0 l/m 0 min 0 min 0 W/m 9,7 km/h (2 Bft) 76,19 %
27.11.2021 01:32 4,3 C 3,9 C 1,7 C 92 % 984,0 hPa 0,0 l/m 0 min 0 min 0 W/m 6,4 km/h (2 Bft) 78,72 %
27.11.2021 01:30 4,3 C 3,9 C 1,7 C 92 % 984,0 hPa 0,0 l/m 0 min 0 min 0 W/m 6,4 km/h (2 Bft) 100,00 %
27.11.2021 01:28 4,3 C 3,9 C 1,7 C 92 % 984,0 hPa 0,0 l/m 0 min 0 min 0 W/m 12,9 km/h (3 Bft) 100,00 %
27.11.2021 01:26 4,3 C 3,9 C 1,7 C 92 % 984,0 hPa 0,0 l/m 0 min 0 min 0 W/m 19,3 km/h (3 Bft) 100,00 %
27.11.2021 01:24 4,3 C 3,9 C 1,7 C 92 % 984,0 hPa 0,0 l/m 0 min 0 min 0 W/m 16,1 km/h (3 Bft) 100,00 %
27.11.2021 01:22 4,3 C 3,9 C 1,7 C 92 % 984,1 hPa 0,0 l/m 0 min 0 min 0 W/m 19,3 km/h (3 Bft) 95,74 %
27.11.2021 01:20 4,3 C 3,9 C 1,7 C 92 % 984,0 hPa 0,0 l/m 0 min 0 min 0 W/m 9,7 km/h (2 Bft) 100,00 %
27.11.2021 01:18 4,3 C 3,9 C 1,7 C 92 % 984,1 hPa 0,0 l/m 0 min 0 min 0 W/m 16,1 km/h (3 Bft) 100,00 %
27.11.2021 01:16 4,2 C 3,9 C 1,7 C 92 % 984,1 hPa 0,0 l/m 0 min 0 min 0 W/m 19,3 km/h (3 Bft) 100,00 %
27.11.2021 01:14 4,2 C 3,9 C 1,7 C 92 % 984,1 hPa 0,0 l/m 0 min 0 min 0 W/m 16,1 km/h (3 Bft) 100,00 %
27.11.2021 01:12 4,2 C 3,9 C 1,7 C 92 % 984,1 hPa 0,0 l/m 0 min 0 min 0 W/m 9,7 km/h (2 Bft) 100,00 %
27.11.2021 01:10 4,2 C 3,9 C 1,7 C 92 % 984,1 hPa 0,0 l/m 0 min 0 min 0 W/m 19,3 km/h (3 Bft) 100,00 %
27.11.2021 01:08 4,2 C 3,9 C 1,7 C 92 % 984,2 hPa 0,0 l/m 0 min 0 min 0 W/m 6,4 km/h (2 Bft) 97,87 %
27.11.2021 01:06 4,2 C 3,9 C 1,7 C 92 % 984,2 hPa 0,0 l/m 0 min 0 min 0 W/m 12,9 km/h (3 Bft) 100,00 %
27.11.2021 01:04 4,2 C 3,9 C 1,7 C 92 % 984,2 hPa 0,0 l/m 0 min 0 min 0 W/m 22,5 km/h (4 Bft) 100,00 %
27.11.2021 01:02 4,2 C 3,9 C 1,7 C 92 % 984,2 hPa 0,0 l/m 0 min 0 min 0 W/m 9,7 km/h (2 Bft) 100,00 %
27.11.2021 01:00 4,2 C 3,9 C 1,7 C 92 % 984,3 hPa 0,0 l/m 0 min 0 min 0 W/m 16,1 km/h (3 Bft) 100,00 %
27.11.2021 00:58 4,2 C 3,9 C 1,7 C 92 % 984,3 hPa 0,0 l/m 0 min 0 min 0 W/m 12,9 km/h (3 Bft) 100,00 %
27.11.2021 00:56 4,2 C 3,9 C 1,7 C 92 % 984,3 hPa 0,0 l/m 0 min 0 min 0 W/m 16,1 km/h (3 Bft) 100,00 %
27.11.2021 00:54 4,2 C 3,9 C 1,7 C 92 % 984,3 hPa 0,0 l/m 0 min 0 min 0 W/m 22,5 km/h (4 Bft) 100,00 %
27.11.2021 00:52 4,2 C 3,9 C 1,7 C 93 % 984,3 hPa 0,0 l/m 0 min 0 min 0 W/m 19,3 km/h (3 Bft) 100,00 %
27.11.2021 00:50 4,2 C 3,9 C 1,7 C 93 % 984,3 hPa 0,0 l/m 0 min 0 min 0 W/m 22,5 km/h (4 Bft) 100,00 %
27.11.2021 00:48 4,2 C 3,9 C 1,7 C 93 % 984,4 hPa 0,0 l/m 0 min 0 min 0 W/m 12,9 km/h (3 Bft) 100,00 %
27.11.2021 00:46 4,2 C 3,9 C 1,7 C 93 % 984,4 hPa 0,0 l/m 0 min 0 min 0 W/m 16,1 km/h (3 Bft) 100,00 %
27.11.2021 00:44 4,2 C 3,9 C 1,7 C 93 % 984,4 hPa 0,0 l/m 0 min 0 min 0 W/m 16,1 km/h (3 Bft) 100,00 %
27.11.2021 00:42 4,2 C 3,9 C 1,7 C 93 % 984,5 hPa 0,0 l/m 0 min 0 min 0 W/m 16,1 km/h (3 Bft) 97,87 %
27.11.2021 00:40 4,2 C 3,9 C 1,7 C 93 % 984,4 hPa 0,0 l/m 0 min 0 min 0 W/m 9,7 km/h (2 Bft) 100,00 %
27.11.2021 00:38 4,1 C 3,9 C 1,7 C 93 % 984,4 hPa 0,0 l/m 0 min 0 min 0 W/m 16,1 km/h (3 Bft) 97,87 %
27.11.2021 00:36 4,2 C 3,9 C 1,7 C 93 % 984,5 hPa 0,0 l/m 0 min 0 min 0 W/m 19,3 km/h (3 Bft) 97,83 %
27.11.2021 00:34 4,1 C 3,9 C 1,7 C 93 % 984,5 hPa 0,0 l/m 0 min 0 min 0 W/m 19,3 km/h (3 Bft) 97,87 %
27.11.2021 00:32 4,1 C 3,9 C 1,7 C 93 % 984,5 hPa 0,0 l/m 0 min 0 min 0 W/m 16,1 km/h (3 Bft) 97,87 %
27.11.2021 00:30 4,2 C 3,9 C 1,7 C 93 % 984,5 hPa 0,0 l/m 0 min 0 min 0 W/m 22,5 km/h (4 Bft) 97,87 %
27.11.2021 00:28 4,1 C 3,9 C 1,7 C 93 % 984,5 hPa 0,0 l/m 0 min 0 min 0 W/m 19,3 km/h (3 Bft) 97,87 %
27.11.2021 00:26 4,1 C 3,9 C 1,7 C 93 % 984,5 hPa 0,0 l/m 0 min 0 min 0 W/m 16,1 km/h (3 Bft) 97,83 %
27.11.2021 00:24 4,1 C 3,9 C 1,7 C 93 % 984,5 hPa 0,0 l/m 0 min 0 min 0 W/m 16,1 km/h (3 Bft) 93,62 %
27.11.2021 00:22 4,1 C 3,9 C 1,7 C 93 % 984,6 hPa 0,0 l/m 0 min 0 min 0 W/m 9,7 km/h (2 Bft) 97,87 %
27.11.2021 00:20 4,1 C 3,9 C 1,7 C 93 % 984,5 hPa 0,0 l/m 0 min 0 min 0 W/m 16,1 km/h (3 Bft) 95,74 %
27.11.2021 00:18 4,1 C 3,9 C 1,7 C 93 % 984,5 hPa 0,0 l/m 0 min 0 min 0 W/m 19,3 km/h (3 Bft) 93,62 %
27.11.2021 00:16 4,1 C 3,9 C 1,7 C 93 % 984,5 hPa 0,0 l/m 0 min 0 min 0 W/m 25,7 km/h (4 Bft) 95,74 %
27.11.2021 00:14 4,1 C 3,9 C 1,7 C 93 % 984,5 hPa 0,0 l/m 0 min 0 min 0 W/m 22,5 km/h (4 Bft) 95,74 %
27.11.2021 00:12 4,1 C 3,9 C 1,7 C 93 % 984,5 hPa 0,0 l/m 0 min 0 min 0 W/m 16,1 km/h (3 Bft) 95,65 %
27.11.2021 00:10 4,1 C 3,9 C 1,7 C 93 % 984,6 hPa 0,0 l/m 0 min 0 min 0 W/m 16,1 km/h (3 Bft) 95,74 %
27.11.2021 00:08 4,1 C 3,9 C 1,7 C 93 % 984,5 hPa 0,0 l/m 0 min 0 min 0 W/m 22,5 km/h (4 Bft) 95,79 %
27.11.2021 00:04 4,1 C 3,9 C 1,7 C 93 % 984,5 hPa 0,0 l/m 0 min 0 min 0 W/m 16,1 km/h (3 Bft) 97,87 %
27.11.2021 00:02 4,1 C 3,9 C 1,7 C 93 % 984,5 hPa 0,0 l/m 0 min 0 min 0 W/m 19,3 km/h (3 Bft) 97,44 %
27.11.2021 00:00 4,1 C 3,9 C 1,7 C 93 % 984,5 hPa 0,0 l/m 0 min 0 min 0 W/m 16,1 km/h (3 Bft) 97,87 %
26.11.2021 23:58 4,1 C 3,9 C 1,7 C 93 % 984,6 hPa 0,0 l/m 0 min 0 min 0 W/m 19,3 km/h (3 Bft) 93,62 %
26.11.2021 23:56 4,1 C 3,9 C 1,7 C 93 % 984,6 hPa 0,0 l/m 0 min 0 min 0 W/m 12,9 km/h (3 Bft) 97,87 %
26.11.2021 23:54 4,1 C 3,9 C 1,7 C 93 % 984,6 hPa 0,0 l/m 0 min 0 min 0 W/m 12,9 km/h (3 Bft) 97,87 %
26.11.2021 23:52 4,1 C 3,9 C 1,7 C 93 % 984,5 hPa 0,0 l/m 0 min 0 min 0 W/m 16,1 km/h (3 Bft) 97,87 %
26.11.2021 23:50 4,1 C 3,9 C 1,7 C 93 % 984,6 hPa 0,0 l/m 0 min 0 min 0 W/m 16,1 km/h (3 Bft) 97,83 %
26.11.2021 23:48 4,1 C 3,9 C 1,7 C 93 % 984,6 hPa 0,0 l/m 0 min 0 min 0 W/m 16,1 km/h (3 Bft) 95,74 %
26.11.2021 23:46 4,1 C 3,9 C 1,7 C 93 % 984,6 hPa 0,0 l/m 0 min 0 min 0 W/m 12,9 km/h (3 Bft) 95,74 %
26.11.2021 23:44 4,1 C 3,9 C 1,7 C 93 % 984,6 hPa 0,0 l/m 0 min 0 min 0 W/m 19,3 km/h (3 Bft) 97,87 %
26.11.2021 23:42 4,1 C 3,9 C 1,7 C 93 % 984,6 hPa 0,0 l/m 0 min 0 min 0 W/m 12,9 km/h (3 Bft) 97,87 %
26.11.2021 23:40 4,0 C 3,9 C 1,7 C 93 % 984,6 hPa 0,0 l/m 0 min 0 min 0 W/m 25,7 km/h (4 Bft) 97,87 %
26.11.2021 23:38 4,0 C 3,9 C 1,7 C 93 % 984,6 hPa 0,0 l/m 0 min 0 min 0 W/m 19,3 km/h (3 Bft) 97,83 %
26.11.2021 23:36 4,0 C 3,9 C 1,7 C 93 % 984,6 hPa 0,0 l/m 0 min 0 min 0 W/m 19,3 km/h (3 Bft) 100,00 %
26.11.2021 23:34 4,0 C 3,9 C 1,7 C 93 % 984,6 hPa 0,0 l/m 0 min 0 min 0 W/m 22,5 km/h (4 Bft) 83,72 %
26.11.2021 23:32 4,0 C 3,9 C 1,7 C 93 % 984,6 hPa 0,0 l/m 0 min 0 min 0 W/m 12,9 km/h (3 Bft) 70,21 %
26.11.2021 23:30 4,0 C 3,9 C 1,7 C 93 % 984,7 hPa 0,0 l/m 0 min 0 min 0 W/m 19,3 km/h (3 Bft) 97,87 %
26.11.2021 23:28 4,0 C 3,3 C 1,7 C 93 % 984,7 hPa 0,0 l/m 0 min 0 min 0 W/m 19,3 km/h (3 Bft) 93,62 %
26.11.2021 23:26 4,0 C 3,3 C 1,7 C 93 % 984,7 hPa 0,0 l/m 0 min 0 min 0 W/m 29,0 km/h (5 Bft) 97,83 %
26.11.2021 23:24 4,0 C 3,3 C 1,7 C 93 % 984,7 hPa 0,0 l/m 0 min 0 min 0 W/m 12,9 km/h (3 Bft) 97,87 %
26.11.2021 23:22 4,0 C 3,3 C 1,7 C 93 % 984,7 hPa 0,0 l/m 0 min 0 min 0 W/m 19,3 km/h (3 Bft) 95,74 %
26.11.2021 23:20 4,0 C 3,3 C 1,7 C 93 % 984,7 hPa 0,0 l/m 0 min 0 min 0 W/m 25,7 km/h (4 Bft) 97,87 %
26.11.2021 23:18 4,0 C 3,3 C 1,7 C 93 % 984,7 hPa 0,0 l/m 0 min 0 min 0 W/m 22,5 km/h (4 Bft) 97,87 %
26.11.2021 23:16 4,0 C 3,3 C 1,7 C 93 % 984,7 hPa 0,0 l/m 0 min 0 min 0 W/m 12,9 km/h (3 Bft) 95,65 %
26.11.2021 23:14 4,0 C 3,3 C 1,7 C 93 % 984,7 hPa 0,0 l/m 0 min 0 min 0 W/m 16,1 km/h (3 Bft) 93,62 %
26.11.2021 23:12 4,0 C 3,3 C 1,7 C 93 % 984,7 hPa 0,0 l/m 0 min 0 min 0 W/m 19,3 km/h (3 Bft) 97,87 %
26.11.2021 23:10 4,0 C 3,3 C 1,7 C 93 % 984,7 hPa 0,0 l/m 0 min 0 min 0 W/m 16,1 km/h (3 Bft) 93,62 %
26.11.2021 23:08 4,0 C 3,3 C 1,7 C 93 % 984,7 hPa 0,0 l/m 0 min 0 min 0 W/m 22,5 km/h (4 Bft) 97,87 %
26.11.2021 23:06 4,0 C 3,3 C 1,7 C 93 % 984,7 hPa 0,0 l/m 0 min 0 min 0 W/m 9,7 km/h (2 Bft) 97,87 %
26.11.2021 23:04 4,0 C 3,3 C 1,7 C 93 % 984,7 hPa 0,0 l/m 0 min 0 min 0 W/m 6,4 km/h (2 Bft) 97,87 %
26.11.2021 23:02 4,0 C 3,3 C 1,7 C 93 % 984,8 hPa 0,0 l/m 0 min 0 min 0 W/m 12,9 km/h (3 Bft) 97,83 %
26.11.2021 23:00 4,0 C 3,3 C 1,7 C 93 % 984,7 hPa 0,0 l/m 0 min 0 min 0 W/m 9,7 km/h (2 Bft) 97,87 %
26.11.2021 22:58 4,0 C 3,3 C 1,7 C 93 % 984,8 hPa 0,0 l/m 0 min 0 min 0 W/m 22,5 km/h (4 Bft) 97,87 %
26.11.2021 22:56 4,0 C 3,3 C 1,7 C 93 % 984,7 hPa 0,0 l/m 0 min 0 min 0 W/m 16,1 km/h (3 Bft) 97,87 %
26.11.2021 22:54 4,0 C 3,3 C 1,7 C 93 % 984,7 hPa 0,0 l/m 0 min 0 min 0 W/m 22,5 km/h (4 Bft) 95,74 %
26.11.2021 22:52 4,0 C 3,3 C 1,7 C 93 % 984,8 hPa 0,0 l/m 0 min 0 min 0 W/m 19,3 km/h (3 Bft) 97,83 %
26.11.2021 22:50 4,0 C 3,3 C 1,7 C 93 % 984,8 hPa 0,0 l/m 0 min 0 min 0 W/m 19,3 km/h (3 Bft) 97,87 %
26.11.2021 22:48 4,0 C 3,3 C 1,7 C 93 % 984,8 hPa 0,0 l/m 0 min 0 min 0 W/m 12,9 km/h (3 Bft) 95,74 %
26.11.2021 22:46 4,0 C 3,3 C 1,7 C 93 % 984,8 hPa 0,0 l/m 0 min 0 min 0 W/m 19,3 km/h (3 Bft) 95,74 %
26.11.2021 22:44 4,0 C 3,3 C 1,7 C 93 % 984,9 hPa 0,0 l/m 0 min 0 min 0 W/m 19,3 km/h (3 Bft) 95,74 %
26.11.2021 22:42 4,0 C 3,3 C 1,7 C 93 % 984,8 hPa 0,0 l/m 0 min 0 min 0 W/m 19,3 km/h (3 Bft) 95,74 %
26.11.2021 22:40 4,0 C 3,3 C 1,7 C 93 % 984,9 hPa 0,0 l/m 0 min 0 min 0 W/m 22,5 km/h (4 Bft) 95,65 %
26.11.2021 22:38 4,0 C 3,3 C 1,7 C 93 % 984,9 hPa 0,0 l/m 0 min 0 min 0 W/m 16,1 km/h (3 Bft) 93,62 %
26.11.2021 22:36 4,0 C 3,3 C 1,7 C 93 % 984,9 hPa 0,0 l/m 0 min 0 min 0 W/m 12,9 km/h (3 Bft) 95,74 %
26.11.2021 22:34 4,0 C 3,3 C 1,7 C 93 % 984,9 hPa 0,0 l/m 0 min 0 min 0 W/m 16,1 km/h (3 Bft) 55,56 %
26.11.2021 22:32 4,0 C 3,3 C 1,7 C 93 % 984,9 hPa 0,0 l/m 0 min 0 min 0 W/m 12,9 km/h (3 Bft) 93,62 %
26.11.2021 22:30 4,0 C 3,3 C 1,7 C 93 % 984,9 hPa 0,0 l/m 0 min 2 min 0 W/m 6,4 km/h (2 Bft) 97,87 %
26.11.2021 22:28 4,1 C 3,3 C 1,7 C 92 % 984,9 hPa 0,2 l/m 0 min 0 min 0 W/m 6,4 km/h (2 Bft) 97,83 %
26.11.2021 22:26 4,1 C 3,3 C 1,7 C 92 % 985,0 hPa 0,0 l/m 0 min 2 min 0 W/m 6,4 km/h (2 Bft) 97,87 %
26.11.2021 22:24 4,1 C 3,3 C 1,7 C 92 % 985,0 hPa 0,0 l/m 0 min 2 min 0 W/m 12,9 km/h (3 Bft) 95,74 %
26.11.2021 22:22 4,1 C 3,3 C 1,7 C 92 % 985,1 hPa 0,0 l/m 0 min 2 min 0 W/m 6,4 km/h (2 Bft) 97,87 %
26.11.2021 22:20 4,1 C 3,3 C 1,7 C 92 % 985,1 hPa 0,0 l/m 0 min 2 min 0 W/m 9,7 km/h (2 Bft) 97,87 %
26.11.2021 22:18 4,1 C 3,3 C 1,7 C 92 % 985,1 hPa 0,0 l/m 0 min 2 min 0 W/m 6,4 km/h (2 Bft) 97,87 %
26.11.2021 22:16 4,1 C 3,3 C 1,7 C 92 % 985,1 hPa 0,2 l/m 0 min 2 min 0 W/m 9,7 km/h (2 Bft) 97,83 %
26.11.2021 22:14 4,1 C 3,3 C 1,7 C 92 % 985,2 hPa 0,0 l/m 0 min 2 min 0 W/m 12,9 km/h (3 Bft) 100,00 %
26.11.2021 22:12 4,2 C 3,3 C 1,7 C 92 % 985,3 hPa 0,0 l/m 0 min 2 min 0 W/m 16,1 km/h (3 Bft) 93,62 %
26.11.2021 22:10 4,2 C 3,3 C 1,7 C 92 % 985,3 hPa 0,0 l/m 0 min 2 min 0 W/m 22,5 km/h (4 Bft) 97,87 %
26.11.2021 22:08 4,2 C 3,3 C 1,7 C 92 % 985,3 hPa 0,0 l/m 0 min 2 min 0 W/m 16,1 km/h (3 Bft) 100,00 %
26.11.2021 22:06 4,2 C 3,3 C 1,7 C 92 % 985,4 hPa 0,2 l/m 0 min 2 min 0 W/m 9,7 km/h (2 Bft) 100,00 %
26.11.2021 22:04 4,2 C 3,3 C 1,7 C 92 % 985,4 hPa 0,0 l/m 0 min 2 min 0 W/m 16,1 km/h (3 Bft) 97,83 %
26.11.2021 22:02 4,3 C 3,3 C 1,7 C 92 % 985,4 hPa 0,2 l/m 0 min 2 min 0 W/m 25,7 km/h (4 Bft) 97,87 %
26.11.2021 22:00 4,3 C 3,9 C 1,7 C 92 % 985,5 hPa 0,0 l/m 0 min 2 min 0 W/m 12,9 km/h (3 Bft) 100,00 %
26.11.2021 21:58 4,3 C 3,9 C 1,7 C 92 % 985,4 hPa 0,0 l/m 0 min 0 min 0 W/m 16,1 km/h (3 Bft) 97,87 %
26.11.2021 21:56 4,3 C 3,9 C 1,7 C 92 % 985,5 hPa 0,0 l/m 0 min 0 min 0 W/m 22,5 km/h (4 Bft) 100,00 %
26.11.2021 21:54 4,3 C 3,9 C 1,7 C 92 % 985,5 hPa 0,0 l/m 0 min 0 min 0 W/m 25,7 km/h (4 Bft) 100,00 %
26.11.2021 21:52 4,3 C 3,9 C 1,7 C 92 % 985,5 hPa 0,0 l/m 0 min 0 min 0 W/m 19,3 km/h (3 Bft) 95,65 %
26.11.2021 21:50 4,3 C 3,9 C 1,7 C 92 % 985,6 hPa 0,0 l/m 0 min 0 min 0 W/m 19,3 km/h (3 Bft) 97,87 %
26.11.2021 21:48 4,3 C 3,9 C 1,7 C 92 % 985,6 hPa 0,0 l/m 0 min 2 min 0 W/m 19,3 km/h (3 Bft) 97,87 %
26.11.2021 21:46 4,3 C 3,9 C 1,7 C 92 % 985,6 hPa 0,0 l/m 0 min 0 min 0 W/m 22,5 km/h (4 Bft) 97,87 %
26.11.2021 21:44 4,2 C 3,9 C 1,7 C 92 % 985,6 hPa 0,0 l/m 0 min 0 min 0 W/m 29,0 km/h (5 Bft) 95,74 %
26.11.2021 21:42 4,2 C 3,9 C 1,7 C 92 % 985,7 hPa 0,0 l/m 0 min 0 min 0 W/m 22,5 km/h (4 Bft) 97,87 %
26.11.2021 21:40 4,2 C 3,9 C 1,7 C 92 % 985,7 hPa 0,0 l/m 0 min 0 min 0 W/m 16,1 km/h (3 Bft) 97,83 %
26.11.2021 21:38 4,2 C 3,9 C 1,7 C 92 % 985,6 hPa 0,0 l/m 0 min 0 min 0 W/m 19,3 km/h (3 Bft) 97,87 %
26.11.2021 21:36 4,2 C 3,9 C 1,7 C 92 % 985,7 hPa 0,0 l/m 0 min 0 min 0 W/m 25,7 km/h (4 Bft) 95,74 %
26.11.2021 21:34 4,2 C 3,9 C 1,7 C 92 % 985,7 hPa 0,0 l/m 0 min 0 min 0 W/m 22,5 km/h (4 Bft) 95,74 %
26.11.2021 21:32 4,1 C 3,9 C 1,7 C 92 % 985,7 hPa 0,0 l/m 0 min 2 min 0 W/m 22,5 km/h (4 Bft) 97,87 %
26.11.2021 21:30 4,1 C 3,9 C 1,7 C 92 % 985,7 hPa 0,0 l/m 0 min 2 min 0 W/m 22,5 km/h (4 Bft) 97,87 %
26.11.2021 21:28 4,1 C 3,3 C 1,7 C 92 % 985,7 hPa 0,0 l/m 0 min 2 min 0 W/m 29,0 km/h (5 Bft) 97,83 %
26.11.2021 21:26 4,1 C 3,3 C 1,7 C 92 % 985,7 hPa 0,0 l/m 0 min 0 min 0 W/m 19,3 km/h (3 Bft) 97,87 %
26.11.2021 21:24 4,1 C 3,3 C 1,7 C 92 % 985,8 hPa 0,0 l/m 0 min 2 min 0 W/m 22,5 km/h (4 Bft) 97,87 %
26.11.2021 21:22 4,1 C 3,3 C 1,7 C 92 % 985,8 hPa 0,0 l/m 0 min 2 min 0 W/m 16,1 km/h (3 Bft) 97,87 %
26.11.2021 21:20 4,1 C 3,3 C 1,7 C 92 % 985,8 hPa 0,0 l/m 0 min 2 min 0 W/m 16,1 km/h (3 Bft) 97,87 %
26.11.2021 21:18 4,1 C 3,3 C 1,7 C 92 % 985,8 hPa 0,0 l/m 0 min 2 min 0 W/m 25,7 km/h (4 Bft) 97,87 %
26.11.2021 21:16 4,1 C 3,3 C 1,7 C 91 % 985,8 hPa 0,0 l/m 0 min 2 min 0 W/m 29,0 km/h (5 Bft) 97,83 %
26.11.2021 21:14 4,1 C 3,3 C 1,7 C 91 % 985,9 hPa 0,0 l/m 0 min 2 min 0 W/m 25,7 km/h (4 Bft) 97,87 %
26.11.2021 21:12 4,1 C 3,3 C 1,7 C 91 % 985,9 hPa 0,0 l/m 0 min 2 min 0 W/m 16,1 km/h (3 Bft) 97,87 %
26.11.2021 21:10 4,1 C 3,3 C 1,7 C 91 % 985,9 hPa 0,0 l/m 0 min 0 min 0 W/m 22,5 km/h (4 Bft) 100,00 %
26.11.2021 21:08 4,1 C 3,3 C 1,7 C 91 % 985,9 hPa 0,0 l/m 0 min 0 min 0 W/m 16,1 km/h (3 Bft) 100,00 %
26.11.2021 21:06 4,1 C 3,3 C 1,7 C 91 % 985,9 hPa 0,0 l/m 0 min 2 min 0 W/m 19,3 km/h (3 Bft) 100,00 %
26.11.2021 21:04 4,1 C 3,3 C 1,7 C 91 % 986,0 hPa 0,0 l/m 0 min 0 min 0 W/m 12,9 km/h (3 Bft) 97,83 %
26.11.2021 21:02 4,1 C 3,3 C 1,1 C 91 % 986,0 hPa 0,0 l/m 0 min 0 min 0 W/m 22,5 km/h (4 Bft) 100,00 %
26.11.2021 21:00 4,1 C 3,3 C 1,1 C 91 % 986,0 hPa 0,0 l/m 0 min 0 min 0 W/m 22,5 km/h (4 Bft) 100,00 %
26.11.2021 20:58 4,1 C 3,3 C 1,1 C 91 % 986,0 hPa 0,0 l/m 0 min 0 min 0 W/m 16,1 km/h (3 Bft) 100,00 %
26.11.2021 20:56 4,1 C 3,9 C 1,1 C 91 % 986,1 hPa 0,0 l/m 0 min 0 min 0 W/m 38,6 km/h (5 Bft) 100,00 %
26.11.2021 20:54 4,1 C 3,3 C 1,1 C 91 % 986,0 hPa 0,0 l/m 0 min 0 min 0 W/m 32,2 km/h (5 Bft) 97,83 %
26.11.2021 20:52 4,1 C 3,3 C 1,1 C 91 % 986,1 hPa 0,0 l/m 0 min 0 min 0 W/m 19,3 km/h (3 Bft) 97,87 %
26.11.2021 20:50 4,1 C 3,3 C 1,1 C 91 % 986,1 hPa 0,0 l/m 0 min 0 min 0 W/m 25,7 km/h (4 Bft) 97,87 %
26.11.2021 20:48 4,1 C 3,3 C 1,1 C 91 % 986,1 hPa 0,0 l/m 0 min 0 min 0 W/m 22,5 km/h (4 Bft) 97,87 %
26.11.2021 20:46 4,1 C 3,3 C 1,1 C 91 % 986,1 hPa 0,0 l/m 0 min 0 min 0 W/m 19,3 km/h (3 Bft) 97,87 %
26.11.2021 20:44 4,1 C 3,3 C 1,1 C 91 % 986,1 hPa 0,0 l/m 0 min 0 min 0 W/m 22,5 km/h (4 Bft) 97,87 %
26.11.2021 20:42 4,1 C 3,3 C 1,1 C 91 % 986,2 hPa 0,0 l/m 0 min 0 min 0 W/m 19,3 km/h (3 Bft) 97,83 %
26.11.2021 20:40 4,1 C 3,3 C 1,1 C 91 % 986,2 hPa 0,0 l/m 0 min 0 min 0 W/m 54,7 km/h (7 Bft) 97,87 %
26.11.2021 20:38 4,1 C 3,3 C 1,1 C 91 % 986,2 hPa 0,0 l/m 0 min 0 min 0 W/m 48,3 km/h (6 Bft) 93,62 %
26.11.2021 20:36 4,1 C 3,3 C 1,1 C 91 % 986,2 hPa 0,0 l/m 0 min 0 min 0 W/m 19,3 km/h (3 Bft) 85,71 %
26.11.2021 20:34 4,1 C 3,3 C 1,1 C 91 % 986,2 hPa 0,0 l/m 0 min 0 min 0 W/m 32,2 km/h (5 Bft) 68,09 %
26.11.2021 20:32 4,1 C 3,3 C 1,1 C 91 % 986,3 hPa 0,0 l/m 0 min 0 min 0 W/m 22,5 km/h (4 Bft) 97,14 %
26.11.2021 20:30 4,1 C 3,3 C 1,1 C 91 % 986,3 hPa 0,0 l/m 0 min 0 min 0 W/m 25,7 km/h (4 Bft) 93,62 %
26.11.2021 20:28 4,1 C 3,3 C 1,1 C 91 % 986,4 hPa 0,0 l/m 0 min 0 min 0 W/m 32,2 km/h (5 Bft) 95,65 %
26.11.2021 20:26 4,1 C 3,3 C 1,1 C 91 % 986,4 hPa 0,0 l/m 0 min 0 min 0 W/m 45,1 km/h (6 Bft) 97,87 %
26.11.2021 20:24 4,1 C 3,3 C 1,1 C 92 % 986,4 hPa 0,0 l/m 0 min 0 min 0 W/m 25,7 km/h (4 Bft) 97,87 %
26.11.2021 20:22 4,1 C 3,3 C 1,1 C 92 % 986,4 hPa 0,0 l/m 0 min 0 min 0 W/m 29,0 km/h (5 Bft) 97,87 %
26.11.2021 20:20 4,1 C 3,3 C 1,1 C 92 % 986,5 hPa 0,0 l/m 0 min 0 min 0 W/m 22,5 km/h (4 Bft) 97,87 %
26.11.2021 20:18 4,1 C 3,3 C 1,1 C 92 % 986,6 hPa 0,0 l/m 0 min 0 min 0 W/m 29,0 km/h (5 Bft) 95,74 %
26.11.2021 20:16 4,1 C 3,3 C 1,1 C 92 % 986,5 hPa 0,0 l/m 0 min 0 min 0 W/m 32,2 km/h (5 Bft) 95,65 %
26.11.2021 20:14 4,1 C 3,3 C 1,1 C 92 % 986,6 hPa 0,0 l/m 0 min 0 min 0 W/m 19,3 km/h (3 Bft) 97,87 %
26.11.2021 20:12 4,1 C 3,9 C 1,1 C 92 % 986,6 hPa 0,0 l/m 0 min 0 min 0 W/m 45,1 km/h (6 Bft) 97,87 %
26.11.2021 20:10 4,1 C 3,9 C 1,1 C 92 % 986,7 hPa 0,0 l/m 0 min 0 min 0 W/m 29,0 km/h (5 Bft) 93,62 %
26.11.2021 20:08 4,1 C 3,3 C 1,1 C 92 % 986,6 hPa 0,0 l/m 0 min 0 min 0 W/m 25,7 km/h (4 Bft) 97,87 %
26.11.2021 20:06 4,1 C 3,3 C 1,1 C 92 % 986,7 hPa 0,0 l/m 0 min 0 min 0 W/m 22,5 km/h (4 Bft) 97,87 %
26.11.2021 20:04 4,1 C 3,3 C 1,1 C 92 % 986,7 hPa 0,0 l/m 0 min 0 min 0 W/m 22,5 km/h (4 Bft) 97,83 %
26.11.2021 20:02 4,1 C 3,3 C 1,1 C 92 % 986,8 hPa 0,0 l/m 0 min 0 min 0 W/m 22,5 km/h (4 Bft) 95,74 %
26.11.2021 20:00 4,1 C 3,9 C 1,1 C 92 % 986,8 hPa 0,0 l/m 0 min 0 min 0 W/m 29,0 km/h (5 Bft) 95,74 %
26.11.2021 19:58 4,1 C 3,3 C 1,1 C 92 % 986,8 hPa 0,0 l/m 0 min 0 min 0 W/m 22,5 km/h (4 Bft) 95,74 %
26.11.2021 19:56 4,1 C 3,9 C 1,1 C 92 % 986,9 hPa 0,0 l/m 0 min 0 min 0 W/m 38,6 km/h (5 Bft) 95,74 %
26.11.2021 19:54 4,1 C 3,9 C 1,1 C 92 % 986,9 hPa 0,0 l/m 0 min 0 min 0 W/m 35,4 km/h (5 Bft) 97,87 %
26.11.2021 19:52 4,1 C 3,3 C 1,1 C 92 % 986,9 hPa 0,0 l/m 0 min 0 min 0 W/m 35,4 km/h (5 Bft) 97,83 %
26.11.2021 19:50 4,1 C 3,3 C 1,1 C 92 % 986,9 hPa 0,0 l/m 0 min 0 min 0 W/m 25,7 km/h (4 Bft) 97,87 %
26.11.2021 19:48 4,1 C 3,3 C 1,1 C 92 % 986,9 hPa 0,0 l/m 0 min 0 min 0 W/m 22,5 km/h (4 Bft) 97,87 %
26.11.2021 19:46 4,1 C 3,3 C 1,1 C 92 % 986,9 hPa 0,0 l/m 0 min 0 min 0 W/m 25,7 km/h (4 Bft) 97,87 %
26.11.2021 19:44 4,1 C 3,3 C 1,1 C 92 % 987,0 hPa 0,0 l/m 0 min 0 min 0 W/m 32,2 km/h (5 Bft) 97,87 %
26.11.2021 19:42 4,1 C 3,3 C 1,1 C 93 % 986,9 hPa 0,0 l/m 0 min 0 min 0 W/m 25,7 km/h (4 Bft) 97,87 %
26.11.2021 19:40 4,1 C 3,3 C 1,1 C 93 % 987,1 hPa 0,0 l/m 0 min 0 min 0 W/m 22,5 km/h (4 Bft) 93,48 %
26.11.2021 19:38 4,1 C 3,3 C 1,1 C 93 % 987,0 hPa 0,0 l/m 0 min 0 min 0 W/m 25,7 km/h (4 Bft) 97,87 %
26.11.2021 19:36 4,1 C 3,3 C 1,1 C 93 % 987,1 hPa 0,0 l/m 0 min 0 min 0 W/m 29,0 km/h (5 Bft) 95,74 %
26.11.2021 19:34 4,1 C 3,3 C 1,1 C 93 % 987,1 hPa 0,0 l/m 0 min 0 min 0 W/m 35,4 km/h (5 Bft) 95,74 %
26.11.2021 19:32 4,1 C 3,3 C 1,1 C 93 % 987,1 hPa 0,0 l/m 0 min 0 min 0 W/m 25,7 km/h (4 Bft) 100,00 %
26.11.2021 19:30 4,1 C 3,3 C 1,1 C 93 % 987,2 hPa 0,0 l/m 0 min 0 min 0 W/m 29,0 km/h (5 Bft) 95,74 %
26.11.2021 19:28 4,1 C 3,3 C 1,1 C 93 % 987,1 hPa 0,0 l/m 0 min 0 min 0 W/m 19,3 km/h (3 Bft) 93,48 %
26.11.2021 19:26 4,1 C 3,3 C 1,1 C 93 % 987,1 hPa 0,0 l/m 0 min 0 min 0 W/m 32,2 km/h (5 Bft) 97,87 %
26.11.2021 19:24 4,1 C 3,3 C 1,1 C 93 % 987,2 hPa 0,0 l/m 0 min 0 min 0 W/m 19,3 km/h (3 Bft) 97,87 %
26.11.2021 19:22 4,1 C 3,3 C 1,1 C 92 % 987,2 hPa 0,0 l/m 0 min 0 min 0 W/m 19,3 km/h (3 Bft) 95,74 %
26.11.2021 19:20 4,1 C 3,3 C 1,1 C 92 % 987,2 hPa 0,0 l/m 0 min 0 min 0 W/m 29,0 km/h (5 Bft) 97,87 %
26.11.2021 19:18 4,1 C 3,3 C 1,1 C 92 % 987,2 hPa 0,0 l/m 0 min 0 min 0 W/m 25,7 km/h (4 Bft) 97,83 %
26.11.2021 19:16 4,0 C 3,3 C 1,1 C 92 % 987,3 hPa 0,0 l/m 0 min 0 min 0 W/m 22,5 km/h (4 Bft) 95,74 %
26.11.2021 19:14 4,1 C 3,3 C 1,1 C 92 % 987,3 hPa 0,0 l/m 0 min 0 min 0 W/m 12,9 km/h (3 Bft) 97,87 %
26.11.2021 19:12 4,0 C 3,3 C 1,1 C 92 % 987,3 hPa 0,0 l/m 0 min 0 min 0 W/m 25,7 km/h (4 Bft) 97,87 %
26.11.2021 19:10 4,1 C 3,3 C 1,1 C 92 % 987,3 hPa 0,0 l/m 0 min 0 min 0 W/m 25,7 km/h (4 Bft) 97,87 %
26.11.2021 19:08 4,0 C 3,3 C 1,1 C 92 % 987,3 hPa 0,0 l/m 0 min 2 min 0 W/m 16,1 km/h (3 Bft) 97,87 %
26.11.2021 19:06 4,0 C 3,3 C 1,1 C 92 % 987,4 hPa 0,0 l/m 0 min 2 min 0 W/m 22,5 km/h (4 Bft) 95,65 %
26.11.2021 19:04 4,1 C 3,3 C 1,1 C 92 % 987,4 hPa 0,2 l/m 0 min 2 min 0 W/m 29,0 km/h (5 Bft) 95,74 %
26.11.2021 19:02 4,1 C 3,3 C 1,1 C 92 % 987,5 hPa 0,0 l/m 0 min 2 min 0 W/m 41,8 km/h (6 Bft) 93,62 %
26.11.2021 19:00 4,1 C 3,3 C 1,1 C 92 % 987,5 hPa 0,2 l/m 0 min 2 min 0 W/m 35,4 km/h (5 Bft) 95,74 %
_ Min-Zeit 06:36 04:56 03:54 13:30 01:20 - - - - 05:48 03:36
Minimum _ 2,3 C 1,7 C 0,6 C 72 % 984,0 hPa - - - - 0,0 km/h (0 Bft) 48,72 %
_ Max-Zeit 13:24 13:08 12:56 05:32 18:34 19:00 09:46 19:00 13:52 20:40 19:32
Maximum _ 6,7 C 17,8 C 3,3 C 95 % 993,0 hPa 0,2 l/m 2 min 2 min 363 W/m 54,7 km/h
S-SW (7 Bft)
100,00 %
Durchschnitt _ 4,0 C 4,0 C 1,6 C 89 % 987,7 hPa #1,2 l/m #3:08 h #0 min. 123 W/m 15,1 km/h (3 Bft) 96,95 %
© 2021 W. Hausmann